Wetterdaten: aktuell Freitag, 18.01.2019 08:52
Datum Zeit Temp. I. Temp. 2m Temp. 5cm LF I. Luftf.2m Luftdruck Regen Wind Richtung Richtung Taupunkt Windchill Windben
18.01.2019 08:52 17,0 C 1,1 C 1,4 C 54 % 76 % 1017,9 hPa 0,0 l/m 10,9 km/h (2 Bft) NW 315 -2,6 C -2,2 C 13,5 km/h (3 Bft)
18.01.2019 08:51 17,0 C 1,1 C 1,4 C 54 % 76 % 1017,9 hPa 0,0 l/m 10,9 km/h (2 Bft) NW 315 -2,6 C -2,2 C 13,5 km/h (3 Bft)
18.01.2019 08:50 16,9 C 1,1 C 1,3 C 54 % 76 % 1017,9 hPa 0,0 l/m 11,1 km/h (2 Bft) N-NW 337 -2,6 C -2,3 C 16,4 km/h (3 Bft)
18.01.2019 08:49 16,9 C 1,1 C 1,3 C 54 % 76 % 1017,9 hPa 0,0 l/m 11,1 km/h (2 Bft) N-NW 337 -2,6 C -2,3 C 16,4 km/h (3 Bft)
18.01.2019 08:48 17,0 C 1,1 C 1,2 C 54 % 76 % 1017,9 hPa 0,0 l/m 11,4 km/h (2 Bft) W-SW 247 -2,6 C -2,3 C 19,1 km/h (3 Bft)
18.01.2019 08:47 17,0 C 1,1 C 1,2 C 54 % 76 % 1017,9 hPa 0,0 l/m 11,4 km/h (2 Bft) W-SW 247 -2,6 C -2,3 C 19,1 km/h (3 Bft)
18.01.2019 08:46 16,9 C 1,1 C 1,2 C 54 % 76 % 1017,9 hPa 0,0 l/m 11,9 km/h (2 Bft) W 270 -2,6 C -2,4 C 19,6 km/h (3 Bft)
18.01.2019 08:45 16,9 C 1,1 C 1,2 C 54 % 76 % 1017,9 hPa 0,0 l/m 11,9 km/h (2 Bft) W 270 -2,6 C -2,4 C 19,6 km/h (3 Bft)
18.01.2019 08:44 16,9 C 1,1 C 1,2 C 54 % 76 % 1017,9 hPa 0,0 l/m 12,9 km/h (3 Bft) W-SW 247 -2,6 C -2,7 C 9,9 km/h (2 Bft)
18.01.2019 08:43 16,9 C 1,1 C 1,2 C 54 % 76 % 1017,9 hPa 0,0 l/m 12,9 km/h (3 Bft) W-SW 247 -2,6 C -2,7 C 9,9 km/h (2 Bft)
18.01.2019 08:42 16,9 C 1,1 C 1,2 C 54 % 75 % 1017,9 hPa 0,0 l/m 13,2 km/h (3 Bft) W-SW 247 -2,8 C -2,7 C 37,4 km/h (5 Bft)
18.01.2019 08:41 16,9 C 1,1 C 1,2 C 54 % 75 % 1017,9 hPa 0,0 l/m 13,2 km/h (3 Bft) W-SW 247 -2,8 C -2,7 C 37,4 km/h (5 Bft)
18.01.2019 08:40 16,9 C 1,1 C 1,2 C 54 % 75 % 1017,9 hPa 0,0 l/m 12,7 km/h (3 Bft) W-NW 292 -2,8 C -2,6 C 18,6 km/h (3 Bft)
18.01.2019 08:39 16,9 C 1,1 C 1,2 C 54 % 75 % 1017,9 hPa 0,0 l/m 12,7 km/h (3 Bft) W-NW 292 -2,8 C -2,6 C 18,6 km/h (3 Bft)
18.01.2019 08:38 16,9 C 1,1 C 1,2 C 54 % 75 % 1017,9 hPa 0,0 l/m 13,2 km/h (3 Bft) W 270 -2,8 C -2,7 C 19,3 km/h (3 Bft)
18.01.2019 08:37 16,9 C 1,1 C 1,2 C 54 % 75 % 1017,9 hPa 0,0 l/m 13,2 km/h (3 Bft) W 270 -2,8 C -2,7 C 19,3 km/h (3 Bft)
18.01.2019 08:36 16,9 C 1,1 C 1,2 C 54 % 75 % 1017,9 hPa 0,0 l/m 13,8 km/h (3 Bft) W-SW 247 -2,8 C -2,8 C 26,6 km/h (4 Bft)
18.01.2019 08:35 16,9 C 1,1 C 1,2 C 54 % 75 % 1017,9 hPa 0,0 l/m 13,8 km/h (3 Bft) W-SW 247 -2,8 C -2,8 C 26,6 km/h (4 Bft)
18.01.2019 08:34 16,9 C 1,3 C 1,3 C 54 % 75 % 1017,1 hPa 0,0 l/m 13,8 km/h (3 Bft) W 270 -2,6 C -2,6 C 28,0 km/h (4 Bft)
18.01.2019 08:33 16,9 C 1,3 C 1,3 C 54 % 75 % 1017,1 hPa 0,0 l/m 13,8 km/h (3 Bft) W 270 -2,6 C -2,6 C 28,0 km/h (4 Bft)
18.01.2019 08:32 16,9 C 1,3 C 1,3 C 55 % 75 % 1017,1 hPa 0,0 l/m 12,6 km/h (3 Bft) W 270 -2,6 C -2,4 C 22,0 km/h (4 Bft)
18.01.2019 08:31 16,9 C 1,3 C 1,3 C 55 % 75 % 1017,1 hPa 0,0 l/m 12,6 km/h (3 Bft) W 270 -2,6 C -2,4 C 22,0 km/h (4 Bft)
18.01.2019 08:30 16,8 C 1,3 C 1,3 C 55 % 75 % 1017,1 hPa 0,0 l/m 12,9 km/h (3 Bft) N-NW 337 -2,6 C -2,4 C 22,0 km/h (4 Bft)
18.01.2019 08:29 16,8 C 1,3 C 1,3 C 55 % 75 % 1017,1 hPa 0,0 l/m 12,9 km/h (3 Bft) N-NW 337 -2,6 C -2,4 C 22,0 km/h (4 Bft)
18.01.2019 08:28 16,8 C 1,4 C 1,5 C 55 % 75 % 1017,1 hPa 0,0 l/m 13,5 km/h (3 Bft) W 270 -2,5 C -2,4 C 25,8 km/h (4 Bft)
18.01.2019 08:27 16,8 C 1,4 C 1,5 C 55 % 75 % 1017,1 hPa 0,0 l/m 13,5 km/h (3 Bft) W 270 -2,5 C -2,4 C 25,8 km/h (4 Bft)
18.01.2019 08:26 16,8 C 1,4 C 1,5 C 55 % 75 % 1017,1 hPa 0,0 l/m 13,5 km/h (3 Bft) W-NW 292 -2,5 C -2,4 C 28,7 km/h (4 Bft)
18.01.2019 08:25 16,8 C 1,4 C 1,5 C 55 % 75 % 1017,1 hPa 0,0 l/m 13,5 km/h (3 Bft) W-NW 292 -2,5 C -2,4 C 28,7 km/h (4 Bft)
18.01.2019 08:24 16,8 C 1,4 C 1,5 C 55 % 75 % 1017,1 hPa 0,0 l/m 13,7 km/h (3 Bft) NW 315 -2,5 C -2,4 C 16,2 km/h (3 Bft)
18.01.2019 08:23 16,8 C 1,4 C 1,5 C 55 % 75 % 1017,1 hPa 0,0 l/m 13,7 km/h (3 Bft) NW 315 -2,5 C -2,4 C 16,2 km/h (3 Bft)
18.01.2019 08:22 16,8 C 1,4 C 1,5 C 55 % 75 % 1017,1 hPa 0,0 l/m 14,8 km/h (3 Bft) W-NW 292 -2,5 C -2,7 C 16,2 km/h (3 Bft)
18.01.2019 08:21 16,8 C 1,4 C 1,5 C 55 % 75 % 1017,1 hPa 0,0 l/m 14,8 km/h (3 Bft) W-NW 292 -2,5 C -2,7 C 16,2 km/h (3 Bft)
18.01.2019 08:20 16,8 C 1,4 C 1,5 C 55 % 75 % 1017,1 hPa 0,0 l/m 14,6 km/h (3 Bft) W 270 -2,5 C -2,6 C 24,6 km/h (4 Bft)
18.01.2019 08:19 16,8 C 1,4 C 1,5 C 55 % 75 % 1017,1 hPa 0,0 l/m 14,6 km/h (3 Bft) W 270 -2,5 C -2,6 C 24,6 km/h (4 Bft)
18.01.2019 08:18 16,8 C 1,5 C 1,5 C 55 % 75 % 1017,1 hPa 0,0 l/m 14,8 km/h (3 Bft) W-SW 247 -2,4 C -2,5 C 22,7 km/h (4 Bft)
18.01.2019 08:17 16,8 C 1,5 C 1,5 C 55 % 75 % 1017,1 hPa 0,0 l/m 14,8 km/h (3 Bft) W-SW 247 -2,4 C -2,5 C 22,7 km/h (4 Bft)
18.01.2019 08:16 16,8 C 1,5 C 1,5 C 55 % 75 % 1017,1 hPa 0,0 l/m 14,2 km/h (3 Bft) W 270 -2,4 C -2,4 C 29,5 km/h (5 Bft)
18.01.2019 08:15 16,8 C 1,5 C 1,5 C 55 % 75 % 1017,1 hPa 0,0 l/m 14,2 km/h (3 Bft) W 270 -2,4 C -2,4 C 29,5 km/h (5 Bft)
18.01.2019 08:14 16,8 C 1,5 C 1,6 C 55 % 75 % 1016,6 hPa 0,0 l/m 13,7 km/h (3 Bft) W 270 -2,4 C -2,3 C 23,9 km/h (4 Bft)
18.01.2019 08:13 16,8 C 1,5 C 1,6 C 55 % 75 % 1016,6 hPa 0,0 l/m 13,7 km/h (3 Bft) W 270 -2,4 C -2,3 C 23,9 km/h (4 Bft)
18.01.2019 08:12 16,8 C 1,5 C 1,6 C 55 % 75 % 1016,6 hPa 0,0 l/m 13,0 km/h (3 Bft) W 270 -2,4 C -2,2 C 36,2 km/h (5 Bft)
18.01.2019 08:11 16,8 C 1,5 C 1,6 C 55 % 75 % 1016,6 hPa 0,0 l/m 13,0 km/h (3 Bft) W 270 -2,4 C -2,2 C 36,2 km/h (5 Bft)
18.01.2019 08:10 16,8 C 1,5 C 1,6 C 55 % 76 % 1016,6 hPa 0,0 l/m 12,2 km/h (2 Bft) W 270 -2,3 C -2,0 C 29,2 km/h (5 Bft)
18.01.2019 08:09 16,8 C 1,5 C 1,6 C 55 % 76 % 1016,6 hPa 0,0 l/m 12,2 km/h (2 Bft) W 270 -2,3 C -2,0 C 29,2 km/h (5 Bft)
18.01.2019 08:08 16,8 C 1,5 C 1,5 C 55 % 76 % 1016,6 hPa 0,0 l/m 11,9 km/h (2 Bft) W 270 -2,3 C -2,0 C 15,9 km/h (3 Bft)
18.01.2019 08:07 16,8 C 1,5 C 1,5 C 55 % 76 % 1016,6 hPa 0,0 l/m 11,9 km/h (2 Bft) W 270 -2,3 C -2,0 C 15,9 km/h (3 Bft)
18.01.2019 08:06 16,8 C 1,5 C 1,6 C 55 % 76 % 1016,6 hPa 0,0 l/m 11,4 km/h (2 Bft) W 270 -2,3 C -1,9 C 10,9 km/h (2 Bft)
18.01.2019 08:05 16,8 C 1,5 C 1,6 C 55 % 76 % 1016,6 hPa 0,0 l/m 11,4 km/h (2 Bft) W 270 -2,3 C -1,9 C 10,9 km/h (2 Bft)
18.01.2019 08:04 16,8 C 1,5 C 1,6 C 56 % 76 % 1016,6 hPa 0,0 l/m 11,3 km/h (2 Bft) W 270 -2,3 C -1,8 C 25,3 km/h (4 Bft)
18.01.2019 08:03 16,8 C 1,5 C 1,6 C 56 % 76 % 1016,6 hPa 0,0 l/m 11,3 km/h (2 Bft) W 270 -2,3 C -1,8 C 25,3 km/h (4 Bft)
18.01.2019 08:02 16,8 C 1,5 C 1,6 C 55 % 76 % 1016,6 hPa 0,0 l/m 11,1 km/h (2 Bft) W-SW 247 -2,3 C -1,8 C 21,7 km/h (4 Bft)
18.01.2019 08:01 16,8 C 1,5 C 1,6 C 55 % 76 % 1016,6 hPa 0,0 l/m 11,1 km/h (2 Bft) W-SW 247 -2,3 C -1,8 C 21,7 km/h (4 Bft)
18.01.2019 08:00 16,8 C 1,5 C 1,6 C 56 % 76 % 1016,6 hPa 0,0 l/m 10,9 km/h (2 Bft) W 270 -2,3 C -1,7 C 25,3 km/h (4 Bft)
18.01.2019 07:59 16,8 C 1,5 C 1,6 C 56 % 76 % 1016,6 hPa 0,0 l/m 10,9 km/h (2 Bft) W 270 -2,3 C -1,7 C 25,3 km/h (4 Bft)
18.01.2019 07:58 16,8 C 1,5 C 1,6 C 56 % 76 % 1016,6 hPa 0,0 l/m 10,6 km/h (2 Bft) NW 315 -2,3 C -1,7 C 22,2 km/h (4 Bft)
18.01.2019 07:57 16,8 C 1,5 C 1,6 C 56 % 76 % 1016,6 hPa 0,0 l/m 10,6 km/h (2 Bft) NW 315 -2,3 C -1,7 C 22,2 km/h (4 Bft)
18.01.2019 07:56 16,7 C 1,5 C 1,6 C 56 % 76 % 1016,6 hPa 0,0 l/m 11,7 km/h (2 Bft) W-SW 247 -2,3 C -1,9 C 13,3 km/h (3 Bft)
18.01.2019 07:55 16,7 C 1,5 C 1,6 C 56 % 76 % 1016,6 hPa 0,0 l/m 11,7 km/h (2 Bft) W-SW 247 -2,3 C -1,9 C 13,3 km/h (3 Bft)
18.01.2019 07:54 16,7 C 1,5 C 1,6 C 56 % 76 % 1016,3 hPa 0,0 l/m 12,1 km/h (2 Bft) W 270 -2,3 C -2,0 C 18,6 km/h (3 Bft)
18.01.2019 07:53 16,7 C 1,5 C 1,6 C 56 % 76 % 1016,3 hPa 0,0 l/m 12,1 km/h (2 Bft) W 270 -2,3 C -2,0 C 18,6 km/h (3 Bft)
18.01.2019 07:52 16,7 C 1,5 C 1,6 C 56 % 76 % 1016,3 hPa 0,0 l/m 12,6 km/h (3 Bft) W-SW 247 -2,3 C -2,1 C 21,2 km/h (4 Bft)
18.01.2019 07:51 16,7 C 1,5 C 1,6 C 56 % 76 % 1016,3 hPa 0,0 l/m 12,6 km/h (3 Bft) W-SW 247 -2,3 C -2,1 C 21,2 km/h (4 Bft)
18.01.2019 07:50 16,7 C 1,5 C 1,6 C 56 % 76 % 1016,3 hPa 0,0 l/m 13,0 km/h (3 Bft) W 270 -2,3 C -2,2 C 21,5 km/h (4 Bft)
18.01.2019 07:49 16,7 C 1,5 C 1,6 C 56 % 76 % 1016,3 hPa 0,0 l/m 13,0 km/h (3 Bft) W 270 -2,3 C -2,2 C 21,5 km/h (4 Bft)
18.01.2019 07:48 16,6 C 1,6 C 1,6 C 56 % 76 % 1016,3 hPa 0,0 l/m 12,4 km/h (3 Bft) W 270 -2,2 C -1,9 C 18,3 km/h (3 Bft)
18.01.2019 07:47 16,6 C 1,6 C 1,6 C 56 % 76 % 1016,3 hPa 0,0 l/m 12,4 km/h (3 Bft) W 270 -2,2 C -1,9 C 18,3 km/h (3 Bft)
18.01.2019 07:46 16,6 C 1,6 C 1,6 C 56 % 76 % 1016,3 hPa 0,0 l/m 13,0 km/h (3 Bft) W-SW 247 -2,2 C -2,1 C 28,7 km/h (4 Bft)
18.01.2019 07:45 16,6 C 1,6 C 1,6 C 56 % 76 % 1016,3 hPa 0,0 l/m 13,0 km/h (3 Bft) W-SW 247 -2,2 C -2,1 C 28,7 km/h (4 Bft)
18.01.2019 07:44 16,6 C 1,6 C 1,6 C 56 % 76 % 1016,3 hPa 0,0 l/m 12,6 km/h (3 Bft) W 270 -2,2 C -2,0 C 15,7 km/h (3 Bft)
18.01.2019 07:43 16,6 C 1,6 C 1,6 C 56 % 76 % 1016,3 hPa 0,0 l/m 12,6 km/h (3 Bft) W 270 -2,2 C -2,0 C 15,7 km/h (3 Bft)
18.01.2019 07:42 16,6 C 1,6 C 1,6 C 56 % 76 % 1016,3 hPa 0,0 l/m 13,2 km/h (3 Bft) W-SW 247 -2,2 C -2,1 C 30,2 km/h (5 Bft)
18.01.2019 07:41 16,6 C 1,6 C 1,6 C 56 % 76 % 1016,3 hPa 0,0 l/m 13,2 km/h (3 Bft) W-SW 247 -2,2 C -2,1 C 30,2 km/h (5 Bft)
18.01.2019 07:40 16,6 C 1,5 C 1,5 C 56 % 76 % 1016,3 hPa 0,0 l/m 12,9 km/h (3 Bft) W-SW 247 -2,3 C -2,2 C 23,7 km/h (4 Bft)
18.01.2019 07:39 16,6 C 1,5 C 1,5 C 56 % 76 % 1016,3 hPa 0,0 l/m 12,9 km/h (3 Bft) W-SW 247 -2,3 C -2,2 C 23,7 km/h (4 Bft)
18.01.2019 07:38 16,5 C 1,5 C 1,5 C 56 % 76 % 1016,3 hPa 0,0 l/m 13,7 km/h (3 Bft) W-SW 247 -2,3 C -2,3 C 18,6 km/h (3 Bft)
18.01.2019 07:37 16,5 C 1,5 C 1,5 C 56 % 76 % 1016,3 hPa 0,0 l/m 13,7 km/h (3 Bft) W-SW 247 -2,3 C -2,3 C 18,6 km/h (3 Bft)
18.01.2019 07:36 16,5 C 1,5 C 1,5 C 56 % 76 % 1016,3 hPa 0,0 l/m 12,6 km/h (3 Bft) W-SW 247 -2,3 C -2,1 C 43,0 km/h (6 Bft)
18.01.2019 07:35 16,5 C 1,5 C 1,5 C 56 % 76 % 1016,3 hPa 0,0 l/m 12,6 km/h (3 Bft) W-SW 247 -2,3 C -2,1 C 43,0 km/h (6 Bft)
18.01.2019 07:34 16,5 C 1,6 C 1,6 C 56 % 76 % 1015,5 hPa 0,0 l/m 11,4 km/h (2 Bft) W 270 -2,2 C -1,7 C 15,0 km/h (3 Bft)
18.01.2019 07:33 16,5 C 1,6 C 1,6 C 56 % 76 % 1015,5 hPa 0,0 l/m 11,4 km/h (2 Bft) W 270 -2,2 C -1,7 C 15,0 km/h (3 Bft)
18.01.2019 07:32 16,4 C 1,5 C 1,5 C 56 % 76 % 1015,5 hPa 0,0 l/m 11,1 km/h (2 Bft) W 270 -2,3 C -1,8 C 29,7 km/h (5 Bft)
18.01.2019 07:31 16,4 C 1,5 C 1,5 C 56 % 76 % 1015,5 hPa 0,0 l/m 11,1 km/h (2 Bft) W 270 -2,3 C -1,8 C 29,7 km/h (5 Bft)
18.01.2019 07:30 16,4 C 1,5 C 1,5 C 56 % 76 % 1015,5 hPa 0,0 l/m 10,8 km/h (2 Bft) W 270 -2,3 C -1,7 C 21,7 km/h (4 Bft)
18.01.2019 07:29 16,4 C 1,5 C 1,5 C 56 % 76 % 1015,5 hPa 0,0 l/m 10,8 km/h (2 Bft) W 270 -2,3 C -1,7 C 21,7 km/h (4 Bft)
18.01.2019 07:28 16,4 C 1,5 C 1,5 C 56 % 76 % 1015,5 hPa 0,0 l/m 9,7 km/h (2 Bft) W-SW 247 -2,3 C -1,4 C 21,7 km/h (4 Bft)
18.01.2019 07:27 16,4 C 1,5 C 1,5 C 56 % 76 % 1015,5 hPa 0,0 l/m 9,7 km/h (2 Bft) W-SW 247 -2,3 C -1,4 C 21,7 km/h (4 Bft)
18.01.2019 07:26 16,4 C 1,5 C 1,5 C 56 % 76 % 1015,5 hPa 0,0 l/m 9,0 km/h (2 Bft) W-SW 247 -2,3 C -1,3 C 15,0 km/h (3 Bft)
18.01.2019 07:25 16,4 C 1,5 C 1,5 C 56 % 76 % 1015,5 hPa 0,0 l/m 9,0 km/h (2 Bft) W-SW 247 -2,3 C -1,3 C 15,0 km/h (3 Bft)
18.01.2019 07:24 16,4 C 1,5 C 1,5 C 56 % 76 % 1015,5 hPa 0,0 l/m 8,5 km/h (2 Bft) W-NW 292 -2,3 C -1,1 C 15,7 km/h (3 Bft)
18.01.2019 07:23 16,4 C 1,5 C 1,5 C 56 % 76 % 1015,5 hPa 0,0 l/m 8,5 km/h (2 Bft) W-NW 292 -2,3 C -1,1 C 15,7 km/h (3 Bft)
18.01.2019 07:22 16,2 C 1,5 C 1,5 C 56 % 76 % 1015,5 hPa 0,0 l/m 8,0 km/h (2 Bft) O 90 -2,3 C -1,0 C 25,8 km/h (4 Bft)
18.01.2019 07:21 16,2 C 1,5 C 1,5 C 56 % 76 % 1015,5 hPa 0,0 l/m 8,0 km/h (2 Bft) O 90 -2,3 C -1,0 C 25,8 km/h (4 Bft)
18.01.2019 07:20 16,3 C 1,4 C 1,5 C 56 % 76 % 1015,5 hPa 0,0 l/m 6,6 km/h (2 Bft) W-SW 247 -2,4 C -0,6 C 18,8 km/h (3 Bft)
18.01.2019 07:19 16,3 C 1,4 C 1,5 C 56 % 76 % 1015,5 hPa 0,0 l/m 6,6 km/h (2 Bft) W-SW 247 -2,4 C -0,6 C 18,8 km/h (3 Bft)
18.01.2019 07:18 16,2 C 1,3 C 1,3 C 56 % 76 % 1015,5 hPa 0,0 l/m 5,5 km/h (1 Bft) W 270 -2,5 C -0,3 C 20,8 km/h (4 Bft)
18.01.2019 07:17 16,2 C 1,3 C 1,3 C 56 % 76 % 1015,5 hPa 0,0 l/m 5,5 km/h (1 Bft) W 270 -2,5 C -0,3 C 20,8 km/h (4 Bft)
18.01.2019 07:16 16,3 C 1,3 C 1,3 C 56 % 76 % 1015,5 hPa 0,0 l/m 5,3 km/h (1 Bft) W-NW 292 -2,5 C -0,2 C 6,5 km/h (2 Bft)
18.01.2019 07:15 16,3 C 1,3 C 1,3 C 56 % 76 % 1015,5 hPa 0,0 l/m 5,3 km/h (1 Bft) W-NW 292 -2,5 C -0,2 C 6,5 km/h (2 Bft)
18.01.2019 07:14 16,2 C 1,3 C 1,3 C 56 % 76 % 1015,1 hPa 0,0 l/m 6,0 km/h (2 Bft) S 180 -2,5 C -0,5 C 8,4 km/h (2 Bft)
18.01.2019 07:13 16,2 C 1,3 C 1,3 C 56 % 76 % 1015,1 hPa 0,0 l/m 6,0 km/h (2 Bft) S 180 -2,5 C -0,5 C 8,4 km/h (2 Bft)
18.01.2019 07:12 16,2 C 1,3 C 1,3 C 56 % 76 % 1015,1 hPa 0,0 l/m 6,1 km/h (2 Bft) W-NW 292 -2,5 C -0,6 C 5,3 km/h (1 Bft)
18.01.2019 07:11 16,2 C 1,3 C 1,3 C 56 % 76 % 1015,1 hPa 0,0 l/m 6,1 km/h (2 Bft) W-NW 292 -2,5 C -0,6 C 5,3 km/h (1 Bft)
18.01.2019 07:10 16,1 C 1,3 C 1,3 C 56 % 75 % 1015,1 hPa 0,0 l/m 6,4 km/h (2 Bft) W-NW 292 -2,6 C -0,7 C 5,6 km/h (1 Bft)
18.01.2019 07:09 16,1 C 1,3 C 1,3 C 56 % 75 % 1015,1 hPa 0,0 l/m 6,4 km/h (2 Bft) W-NW 292 -2,6 C -0,7 C 5,6 km/h (1 Bft)
18.01.2019 07:08 16,1 C 1,4 C 1,3 C 56 % 75 % 1015,1 hPa 0,0 l/m 6,9 km/h (2 Bft) W 270 -2,5 C -0,7 C 15,0 km/h (3 Bft)
18.01.2019 07:07 16,1 C 1,4 C 1,3 C 56 % 75 % 1015,1 hPa 0,0 l/m 6,9 km/h (2 Bft) W 270 -2,5 C -0,7 C 15,0 km/h (3 Bft)
18.01.2019 07:06 16,1 C 1,4 C 1,3 C 56 % 75 % 1015,1 hPa 0,0 l/m 7,9 km/h (2 Bft) W 270 -2,5 C -1,1 C 9,2 km/h (2 Bft)
18.01.2019 07:05 16,1 C 1,4 C 1,3 C 56 % 75 % 1015,1 hPa 0,0 l/m 7,9 km/h (2 Bft) W 270 -2,5 C -1,1 C 9,2 km/h (2 Bft)
18.01.2019 07:04 15,9 C 1,4 C 1,5 C 56 % 75 % 1015,1 hPa 0,0 l/m 8,0 km/h (2 Bft) W 270 -2,5 C -1,1 C 15,9 km/h (3 Bft)
18.01.2019 07:03 15,9 C 1,4 C 1,5 C 56 % 75 % 1015,1 hPa 0,0 l/m 8,0 km/h (2 Bft) W 270 -2,5 C -1,1 C 15,9 km/h (3 Bft)
18.01.2019 07:02 16,0 C 1,4 C 1,5 C 56 % 75 % 1015,1 hPa 0,0 l/m 7,9 km/h (2 Bft) N-NW 337 -2,5 C -1,1 C 10,4 km/h (2 Bft)
18.01.2019 07:01 16,0 C 1,4 C 1,5 C 56 % 75 % 1015,1 hPa 0,0 l/m 7,9 km/h (2 Bft) N-NW 337 -2,5 C -1,1 C 10,4 km/h (2 Bft)
18.01.2019 07:00 16,0 C 1,4 C 1,5 C 56 % 75 % 1015,1 hPa 0,0 l/m 8,4 km/h (2 Bft) NW 315 -2,5 C -1,2 C 13,0 km/h (3 Bft)
18.01.2019 06:59 16,0 C 1,4 C 1,5 C 56 % 75 % 1015,1 hPa 0,0 l/m 8,4 km/h (2 Bft) NW 315 -2,5 C -1,2 C 13,0 km/h (3 Bft)
18.01.2019 06:58 15,8 C 1,4 C 1,5 C 56 % 75 % 1015,1 hPa 0,0 l/m 8,9 km/h (2 Bft) NW 315 -2,5 C -1,4 C 14,2 km/h (3 Bft)
18.01.2019 06:57 15,8 C 1,4 C 1,5 C 56 % 75 % 1015,1 hPa 0,0 l/m 8,9 km/h (2 Bft) NW 315 -2,5 C -1,4 C 14,2 km/h (3 Bft)
18.01.2019 06:56 15,9 C 1,4 C 1,5 C 56 % 75 % 1015,1 hPa 0,0 l/m 8,5 km/h (2 Bft) W 270 -2,5 C -1,2 C 16,2 km/h (3 Bft)
18.01.2019 06:55 15,9 C 1,4 C 1,5 C 56 % 75 % 1015,1 hPa 0,0 l/m 8,5 km/h (2 Bft) W 270 -2,5 C -1,2 C 16,2 km/h (3 Bft)
18.01.2019 06:54 15,8 C 1,4 C 1,5 C 56 % 75 % 1014,4 hPa 0,0 l/m 8,4 km/h (2 Bft) W 270 -2,5 C -1,2 C 13,3 km/h (3 Bft)
18.01.2019 06:53 15,8 C 1,4 C 1,5 C 56 % 75 % 1014,4 hPa 0,0 l/m 8,4 km/h (2 Bft) W 270 -2,5 C -1,2 C 13,3 km/h (3 Bft)
18.01.2019 06:52 15,8 C 1,4 C 1,5 C 56 % 75 % 1014,4 hPa 0,0 l/m 9,0 km/h (2 Bft) W-NW 292 -2,5 C -1,4 C 14,0 km/h (3 Bft)
18.01.2019 06:51 15,8 C 1,4 C 1,5 C 56 % 75 % 1014,4 hPa 0,0 l/m 9,0 km/h (2 Bft) W-NW 292 -2,5 C -1,4 C 14,0 km/h (3 Bft)
18.01.2019 06:50 15,8 C 1,4 C 1,5 C 56 % 75 % 1014,4 hPa 0,0 l/m 8,7 km/h (2 Bft) W-NW 292 -2,5 C -1,3 C 13,3 km/h (3 Bft)
18.01.2019 06:49 15,8 C 1,4 C 1,5 C 56 % 75 % 1014,4 hPa 0,0 l/m 8,7 km/h (2 Bft) W-NW 292 -2,5 C -1,3 C 13,3 km/h (3 Bft)
18.01.2019 06:48 15,6 C 1,4 C 1,5 C 57 % 75 % 1014,4 hPa 0,0 l/m 8,9 km/h (2 Bft) W-NW 292 -2,5 C -1,4 C 12,1 km/h (2 Bft)
18.01.2019 06:47 15,6 C 1,4 C 1,5 C 57 % 75 % 1014,4 hPa 0,0 l/m 8,9 km/h (2 Bft) W-NW 292 -2,5 C -1,4 C 12,1 km/h (2 Bft)
18.01.2019 06:46 15,6 C 1,5 C 1,5 C 57 % 75 % 1014,4 hPa 0,0 l/m 9,2 km/h (2 Bft) W 270 -2,4 C -1,3 C 21,0 km/h (4 Bft)
18.01.2019 06:45 15,6 C 1,5 C 1,5 C 57 % 75 % 1014,4 hPa 0,0 l/m 9,2 km/h (2 Bft) W 270 -2,4 C -1,3 C 21,0 km/h (4 Bft)
18.01.2019 06:44 15,6 C 1,5 C 1,5 C 57 % 75 % 1014,4 hPa 0,0 l/m 9,3 km/h (2 Bft) W-NW 292 -2,4 C -1,3 C 13,8 km/h (3 Bft)
18.01.2019 06:43 15,6 C 1,5 C 1,5 C 57 % 75 % 1014,4 hPa 0,0 l/m 9,3 km/h (2 Bft) W-NW 292 -2,4 C -1,3 C 13,8 km/h (3 Bft)
18.01.2019 06:42 15,6 C 1,5 C 1,5 C 57 % 75 % 1014,4 hPa 0,0 l/m 9,0 km/h (2 Bft) SW 225 -2,4 C -1,3 C 14,0 km/h (3 Bft)
18.01.2019 06:41 15,6 C 1,5 C 1,5 C 57 % 75 % 1014,4 hPa 0,0 l/m 9,0 km/h (2 Bft) SW 225 -2,4 C -1,3 C 14,0 km/h (3 Bft)
18.01.2019 06:40 15,6 C 1,5 C 1,5 C 57 % 75 % 1014,4 hPa 0,0 l/m 9,0 km/h (2 Bft) W 270 -2,4 C -1,3 C 9,9 km/h (2 Bft)
18.01.2019 06:39 15,6 C 1,5 C 1,5 C 57 % 75 % 1014,4 hPa 0,0 l/m 9,0 km/h (2 Bft) W 270 -2,4 C -1,3 C 9,9 km/h (2 Bft)
18.01.2019 06:38 15,5 C 1,5 C 1,5 C 57 % 75 % 1014,4 hPa 0,0 l/m 9,0 km/h (2 Bft) O 90 -2,4 C -1,3 C 12,1 km/h (2 Bft)
18.01.2019 06:37 15,5 C 1,5 C 1,5 C 57 % 75 % 1014,4 hPa 0,0 l/m 9,0 km/h (2 Bft) O 90 -2,4 C -1,3 C 12,1 km/h (2 Bft)
18.01.2019 06:36 15,3 C 1,5 C 1,5 C 57 % 75 % 1014,4 hPa 0,0 l/m 9,7 km/h (2 Bft) W 270 -2,4 C -1,4 C 18,6 km/h (3 Bft)
18.01.2019 06:35 15,3 C 1,5 C 1,5 C 57 % 75 % 1014,4 hPa 0,0 l/m 9,7 km/h (2 Bft) W 270 -2,4 C -1,4 C 18,6 km/h (3 Bft)
18.01.2019 06:34 15,4 C 1,5 C 1,5 C 57 % 75 % 1013,8 hPa 0,0 l/m 9,5 km/h (2 Bft) W-NW 292 -2,4 C -1,4 C 14,5 km/h (3 Bft)
18.01.2019 06:33 15,4 C 1,5 C 1,5 C 57 % 75 % 1013,8 hPa 0,0 l/m 9,5 km/h (2 Bft) W-NW 292 -2,4 C -1,4 C 14,5 km/h (3 Bft)
18.01.2019 06:32 15,4 C 1,5 C 1,5 C 57 % 75 % 1013,8 hPa 0,0 l/m 10,3 km/h (2 Bft) W 270 -2,4 C -1,6 C 13,5 km/h (3 Bft)
18.01.2019 06:31 15,4 C 1,5 C 1,5 C 57 % 75 % 1013,8 hPa 0,0 l/m 10,3 km/h (2 Bft) W 270 -2,4 C -1,6 C 13,5 km/h (3 Bft)
18.01.2019 06:30 15,2 C 1,5 C 1,5 C 57 % 75 % 1013,8 hPa 0,0 l/m 11,3 km/h (2 Bft) W 270 -2,4 C -1,8 C 12,8 km/h (3 Bft)
18.01.2019 06:29 15,2 C 1,5 C 1,5 C 57 % 75 % 1013,8 hPa 0,0 l/m 11,3 km/h (2 Bft) W 270 -2,4 C -1,8 C 12,8 km/h (3 Bft)
18.01.2019 06:28 15,3 C 1,5 C 1,6 C 57 % 75 % 1013,8 hPa 0,0 l/m 12,2 km/h (2 Bft) W 270 -2,4 C -2,0 C 23,9 km/h (4 Bft)
18.01.2019 06:27 15,3 C 1,5 C 1,6 C 57 % 75 % 1013,8 hPa 0,0 l/m 12,2 km/h (2 Bft) W 270 -2,4 C -2,0 C 23,9 km/h (4 Bft)
18.01.2019 06:26 15,1 C 1,5 C 1,6 C 57 % 75 % 1013,8 hPa 0,0 l/m 12,4 km/h (3 Bft) NW 315 -2,4 C -2,1 C 15,4 km/h (3 Bft)
18.01.2019 06:25 15,1 C 1,5 C 1,6 C 57 % 75 % 1013,8 hPa 0,0 l/m 12,4 km/h (3 Bft) NW 315 -2,4 C -2,1 C 15,4 km/h (3 Bft)
18.01.2019 06:24 15,1 C 1,5 C 1,6 C 57 % 75 % 1013,8 hPa 0,0 l/m 13,4 km/h (3 Bft) NW 315 -2,4 C -2,3 C 18,8 km/h (3 Bft)
18.01.2019 06:23 15,1 C 1,5 C 1,6 C 57 % 75 % 1013,8 hPa 0,0 l/m 13,4 km/h (3 Bft) NW 315 -2,4 C -2,3 C 18,8 km/h (3 Bft)
18.01.2019 06:22 15,2 C 1,5 C 1,6 C 57 % 75 % 1013,8 hPa 0,0 l/m 13,8 km/h (3 Bft) NW 315 -2,4 C -2,3 C 22,0 km/h (4 Bft)
18.01.2019 06:21 15,2 C 1,5 C 1,6 C 57 % 75 % 1013,8 hPa 0,0 l/m 13,8 km/h (3 Bft) NW 315 -2,4 C -2,3 C 22,0 km/h (4 Bft)
18.01.2019 06:20 15,2 C 1,5 C 1,6 C 57 % 75 % 1013,8 hPa 0,0 l/m 14,0 km/h (3 Bft) NW 315 -2,4 C -2,4 C 24,1 km/h (4 Bft)
18.01.2019 06:19 15,2 C 1,5 C 1,6 C 57 % 75 % 1013,8 hPa 0,0 l/m 14,0 km/h (3 Bft) NW 315 -2,4 C -2,4 C 24,1 km/h (4 Bft)
18.01.2019 06:18 15,1 C 1,5 C 1,6 C 57 % 75 % 1013,8 hPa 0,0 l/m 14,0 km/h (3 Bft) W-NW 292 -2,4 C -2,4 C 20,5 km/h (4 Bft)
18.01.2019 06:17 15,1 C 1,5 C 1,6 C 57 % 75 % 1013,8 hPa 0,0 l/m 14,0 km/h (3 Bft) W-NW 292 -2,4 C -2,4 C 20,5 km/h (4 Bft)
18.01.2019 06:16 15,1 C 1,5 C 1,6 C 57 % 75 % 1013,8 hPa 0,0 l/m 13,7 km/h (3 Bft) W 270 -2,4 C -2,3 C 24,4 km/h (4 Bft)
18.01.2019 06:15 15,1 C 1,5 C 1,6 C 57 % 75 % 1013,8 hPa 0,0 l/m 13,7 km/h (3 Bft) W 270 -2,4 C -2,3 C 24,4 km/h (4 Bft)
18.01.2019 06:14 15,1 C 1,5 C 1,6 C 57 % 75 % 1013,1 hPa 0,0 l/m 13,0 km/h (3 Bft) NW 315 -2,4 C -2,2 C 28,7 km/h (4 Bft)
18.01.2019 06:13 15,1 C 1,5 C 1,6 C 57 % 75 % 1013,1 hPa 0,0 l/m 13,0 km/h (3 Bft) NW 315 -2,4 C -2,2 C 28,7 km/h (4 Bft)
18.01.2019 06:12 14,9 C 1,5 C 1,6 C 57 % 75 % 1013,1 hPa 0,0 l/m 13,0 km/h (3 Bft) W 270 -2,4 C -2,2 C 19,3 km/h (3 Bft)
18.01.2019 06:11 14,9 C 1,5 C 1,6 C 57 % 75 % 1013,1 hPa 0,0 l/m 13,0 km/h (3 Bft) W 270 -2,4 C -2,2 C 19,3 km/h (3 Bft)
18.01.2019 06:10 14,9 C 1,5 C 1,6 C 57 % 75 % 1013,1 hPa 0,0 l/m 12,4 km/h (3 Bft) W 270 -2,4 C -2,1 C 26,8 km/h (4 Bft)
18.01.2019 06:09 14,9 C 1,5 C 1,6 C 57 % 75 % 1013,1 hPa 0,0 l/m 12,4 km/h (3 Bft) W 270 -2,4 C -2,1 C 26,8 km/h (4 Bft)
18.01.2019 06:08 15,0 C 1,6 C 1,6 C 57 % 75 % 1013,1 hPa 0,0 l/m 12,6 km/h (3 Bft) W 270 -2,3 C -2,0 C 26,3 km/h (4 Bft)
18.01.2019 06:07 15,0 C 1,6 C 1,6 C 57 % 75 % 1013,1 hPa 0,0 l/m 12,6 km/h (3 Bft) W 270 -2,3 C -2,0 C 26,3 km/h (4 Bft)
18.01.2019 06:06 15,0 C 1,6 C 1,7 C 57 % 76 % 1013,1 hPa 0,0 l/m 12,2 km/h (2 Bft) W 270 -2,2 C -1,9 C 16,9 km/h (3 Bft)
18.01.2019 06:05 15,0 C 1,6 C 1,7 C 57 % 76 % 1013,1 hPa 0,0 l/m 12,2 km/h (2 Bft) W 270 -2,2 C -1,9 C 16,9 km/h (3 Bft)
18.01.2019 06:04 15,0 C 1,6 C 1,7 C 57 % 76 % 1013,1 hPa 0,0 l/m 11,9 km/h (2 Bft) W 270 -2,2 C -1,8 C 27,8 km/h (4 Bft)
18.01.2019 06:03 15,0 C 1,6 C 1,7 C 57 % 76 % 1013,1 hPa 0,0 l/m 11,9 km/h (2 Bft) W 270 -2,2 C -1,8 C 27,8 km/h (4 Bft)
18.01.2019 06:02 15,0 C 1,6 C 1,7 C 57 % 76 % 1013,1 hPa 0,0 l/m 11,6 km/h (2 Bft) W 270 -2,2 C -1,8 C 28,0 km/h (4 Bft)
18.01.2019 06:01 15,0 C 1,6 C 1,7 C 57 % 76 % 1013,1 hPa 0,0 l/m 11,6 km/h (2 Bft) W 270 -2,2 C -1,8 C 28,0 km/h (4 Bft)
18.01.2019 06:00 15,0 C 1,6 C 1,7 C 57 % 76 % 1013,1 hPa 0,0 l/m 11,3 km/h (2 Bft) W 270 -2,2 C -1,7 C 18,1 km/h (3 Bft)
18.01.2019 05:59 15,0 C 1,6 C 1,7 C 57 % 76 % 1013,1 hPa 0,0 l/m 11,3 km/h (2 Bft) W 270 -2,2 C -1,7 C 18,1 km/h (3 Bft)
18.01.2019 05:58 15,0 C 1,6 C 1,7 C 57 % 76 % 1013,1 hPa 0,0 l/m 11,3 km/h (2 Bft) W-SW 247 -2,2 C -1,7 C 16,9 km/h (3 Bft)
18.01.2019 05:57 15,0 C 1,6 C 1,7 C 57 % 76 % 1013,1 hPa 0,0 l/m 11,3 km/h (2 Bft) W-SW 247 -2,2 C -1,7 C 16,9 km/h (3 Bft)
18.01.2019 05:56 15,0 C 1,6 C 1,7 C 57 % 77 % 1013,1 hPa 0,0 l/m 11,1 km/h (2 Bft) W 270 -2,0 C -1,7 C 17,9 km/h (3 Bft)
18.01.2019 05:55 15,0 C 1,6 C 1,7 C 57 % 77 % 1013,1 hPa 0,0 l/m 11,1 km/h (2 Bft) W 270 -2,0 C -1,7 C 17,9 km/h (3 Bft)
18.01.2019 05:54 15,0 C 1,6 C 1,7 C 57 % 77 % 1013,0 hPa 0,0 l/m 11,1 km/h (2 Bft) W 270 -2,0 C -1,7 C 26,1 km/h (4 Bft)
18.01.2019 05:53 15,0 C 1,6 C 1,7 C 57 % 77 % 1013,0 hPa 0,0 l/m 11,1 km/h (2 Bft) W 270 -2,0 C -1,7 C 26,1 km/h (4 Bft)
18.01.2019 05:52 15,0 C 1,7 C 1,8 C 57 % 77 % 1013,0 hPa 0,0 l/m 10,8 km/h (2 Bft) W 270 -1,9 C -1,5 C 11,3 km/h (2 Bft)
18.01.2019 05:51 15,0 C 1,7 C 1,8 C 57 % 77 % 1013,0 hPa 0,0 l/m 10,8 km/h (2 Bft) W 270 -1,9 C -1,5 C 11,3 km/h (2 Bft)
18.01.2019 05:50 15,0 C 1,7 C 1,8 C 57 % 77 % 1013,0 hPa 0,0 l/m 11,3 km/h (2 Bft) W-NW 292 -1,9 C -1,6 C 22,7 km/h (4 Bft)
18.01.2019 05:49 15,0 C 1,7 C 1,8 C 57 % 77 % 1013,0 hPa 0,0 l/m 11,3 km/h (2 Bft) W-NW 292 -1,9 C -1,6 C 22,7 km/h (4 Bft)
18.01.2019 05:48 15,0 C 1,7 C 1,8 C 57 % 77 % 1013,0 hPa 0,0 l/m 11,7 km/h (2 Bft) W 270 -1,9 C -1,7 C 24,9 km/h (4 Bft)
18.01.2019 05:47 15,0 C 1,7 C 1,8 C 57 % 77 % 1013,0 hPa 0,0 l/m 11,7 km/h (2 Bft) W 270 -1,9 C -1,7 C 24,9 km/h (4 Bft)
18.01.2019 05:46 15,0 C 1,7 C 1,8 C 57 % 78 % 1013,0 hPa 0,0 l/m 11,4 km/h (2 Bft) W 270 -1,7 C -1,6 C 22,7 km/h (4 Bft)
18.01.2019 05:45 15,0 C 1,7 C 1,8 C 57 % 78 % 1013,0 hPa 0,0 l/m 11,4 km/h (2 Bft) W 270 -1,7 C -1,6 C 22,7 km/h (4 Bft)
18.01.2019 05:44 15,0 C 1,9 C 2,0 C 57 % 78 % 1013,0 hPa 0,0 l/m 10,6 km/h (2 Bft) W-SW 247 -1,5 C -1,2 C 16,2 km/h (3 Bft)
18.01.2019 05:43 15,0 C 1,9 C 2,0 C 57 % 78 % 1013,0 hPa 0,0 l/m 10,6 km/h (2 Bft) W-SW 247 -1,5 C -1,2 C 16,2 km/h (3 Bft)
18.01.2019 05:42 15,0 C 1,9 C 2,0 C 57 % 78 % 1013,0 hPa 0,0 l/m 10,3 km/h (2 Bft) NW 315 -1,5 C -1,1 C 17,9 km/h (3 Bft)
18.01.2019 05:41 15,0 C 1,9 C 2,0 C 57 % 78 % 1013,0 hPa 0,0 l/m 10,3 km/h (2 Bft) NW 315 -1,5 C -1,1 C 17,9 km/h (3 Bft)
18.01.2019 05:40 15,0 C 1,9 C 2,1 C 57 % 78 % 1013,0 hPa 0,0 l/m 10,8 km/h (2 Bft) NW 315 -1,5 C -1,2 C 26,1 km/h (4 Bft)
18.01.2019 05:39 15,0 C 1,9 C 2,1 C 57 % 78 % 1013,0 hPa 0,0 l/m 10,8 km/h (2 Bft) NW 315 -1,5 C -1,2 C 26,1 km/h (4 Bft)
18.01.2019 05:38 15,0 C 2,0 C 2,1 C 57 % 78 % 1013,0 hPa 0,0 l/m 10,6 km/h (2 Bft) N-NW 337 -1,4 C -1,1 C 35,7 km/h (5 Bft)
18.01.2019 05:37 15,0 C 2,0 C 2,1 C 57 % 78 % 1013,0 hPa 0,0 l/m 10,6 km/h (2 Bft) N-NW 337 -1,4 C -1,1 C 35,7 km/h (5 Bft)
18.01.2019 05:36 15,0 C 2,0 C 2,2 C 57 % 78 % 1013,0 hPa 0,0 l/m 10,3 km/h (2 Bft) NW 315 -1,4 C -1,0 C 18,8 km/h (3 Bft)
18.01.2019 05:35 15,0 C 2,0 C 2,2 C 57 % 78 % 1013,0 hPa 0,0 l/m 10,3 km/h (2 Bft) NW 315 -1,4 C -1,0 C 18,8 km/h (3 Bft)
18.01.2019 05:34 15,0 C 2,0 C 2,2 C 57 % 78 % 1012,5 hPa 0,0 l/m 10,6 km/h (2 Bft) W 270 -1,4 C -1,1 C 13,8 km/h (3 Bft)
18.01.2019 05:33 15,0 C 2,0 C 2,2 C 57 % 78 % 1012,5 hPa 0,0 l/m 10,6 km/h (2 Bft) W 270 -1,4 C -1,1 C 13,8 km/h (3 Bft)
18.01.2019 05:32 14,9 C 2,0 C 2,2 C 57 % 78 % 1012,5 hPa 0,0 l/m 10,8 km/h (2 Bft) NW 315 -1,4 C -1,1 C 10,9 km/h (2 Bft)
18.01.2019 05:31 14,9 C 2,0 C 2,2 C 57 % 78 % 1012,5 hPa 0,0 l/m 10,8 km/h (2 Bft) NW 315 -1,4 C -1,1 C 10,9 km/h (2 Bft)
18.01.2019 05:30 14,9 C 2,0 C 2,2 C 57 % 78 % 1012,5 hPa 0,0 l/m 10,6 km/h (2 Bft) NW 315 -1,4 C -1,1 C 15,4 km/h (3 Bft)
18.01.2019 05:29 14,9 C 2,0 C 2,2 C 57 % 78 % 1012,5 hPa 0,0 l/m 10,6 km/h (2 Bft) NW 315 -1,4 C -1,1 C 15,4 km/h (3 Bft)
18.01.2019 05:28 15,1 C 2,0 C 2,2 C 57 % 78 % 1012,5 hPa 0,0 l/m 10,3 km/h (2 Bft) W 270 -1,4 C -1,0 C 20,3 km/h (4 Bft)
18.01.2019 05:27 15,1 C 2,0 C 2,2 C 57 % 78 % 1012,5 hPa 0,0 l/m 10,3 km/h (2 Bft) W 270 -1,4 C -1,0 C 20,3 km/h (4 Bft)
18.01.2019 05:26 15,1 C 2,0 C 2,1 C 57 % 78 % 1012,5 hPa 0,0 l/m 10,0 km/h (2 Bft) W-NW 292 -1,4 C -0,9 C 22,4 km/h (4 Bft)
18.01.2019 05:25 15,1 C 2,0 C 2,1 C 57 % 78 % 1012,5 hPa 0,0 l/m 10,0 km/h (2 Bft) W-NW 292 -1,4 C -0,9 C 22,4 km/h (4 Bft)
18.01.2019 05:24 15,1 C 2,0 C 2,1 C 57 % 78 % 1012,5 hPa 0,0 l/m 10,6 km/h (2 Bft) W 270 -1,4 C -1,1 C 16,4 km/h (3 Bft)
18.01.2019 05:23 15,1 C 2,0 C 2,1 C 57 % 78 % 1012,5 hPa 0,0 l/m 10,6 km/h (2 Bft) W 270 -1,4 C -1,1 C 16,4 km/h (3 Bft)
18.01.2019 05:22 15,1 C 2,0 C 2,1 C 57 % 78 % 1012,5 hPa 0,0 l/m 10,5 km/h (2 Bft) W 270 -1,4 C -1,0 C 15,2 km/h (3 Bft)
18.01.2019 05:21 15,1 C 2,0 C 2,1 C 57 % 78 % 1012,5 hPa 0,0 l/m 10,5 km/h (2 Bft) W 270 -1,4 C -1,0 C 15,2 km/h (3 Bft)
18.01.2019 05:20 15,1 C 2,0 C 2,1 C 57 % 78 % 1012,5 hPa 0,0 l/m 10,6 km/h (2 Bft) W-NW 292 -1,4 C -1,1 C 18,8 km/h (3 Bft)
18.01.2019 05:19 15,1 C 2,0 C 2,1 C 57 % 78 % 1012,5 hPa 0,0 l/m 10,6 km/h (2 Bft) W-NW 292 -1,4 C -1,1 C 18,8 km/h (3 Bft)
18.01.2019 05:18 15,1 C 2,0 C 2,1 C 57 % 78 % 1012,5 hPa 0,0 l/m 10,3 km/h (2 Bft) W 270 -1,4 C -1,0 C 14,7 km/h (3 Bft)
18.01.2019 05:17 15,1 C 2,0 C 2,1 C 57 % 78 % 1012,5 hPa 0,0 l/m 10,3 km/h (2 Bft) W 270 -1,4 C -1,0 C 14,7 km/h (3 Bft)
18.01.2019 05:16 15,1 C 2,0 C 2,1 C 57 % 77 % 1012,5 hPa 0,0 l/m 10,5 km/h (2 Bft) NW 315 -1,6 C -1,0 C 17,4 km/h (3 Bft)
18.01.2019 05:15 15,1 C 2,0 C 2,1 C 57 % 77 % 1012,5 hPa 0,0 l/m 10,5 km/h (2 Bft) NW 315 -1,6 C -1,0 C 17,4 km/h (3 Bft)
18.01.2019 05:14 15,1 C 2,0 C 2,1 C 57 % 77 % 1012,3 hPa 0,0 l/m 10,1 km/h (2 Bft) W 270 -1,6 C -0,9 C 26,8 km/h (4 Bft)
18.01.2019 05:13 15,1 C 2,0 C 2,1 C 57 % 77 % 1012,3 hPa 0,0 l/m 10,1 km/h (2 Bft) W 270 -1,6 C -0,9 C 26,8 km/h (4 Bft)
18.01.2019 05:12 15,1 C 2,0 C 2,1 C 57 % 77 % 1012,3 hPa 0,0 l/m 10,0 km/h (2 Bft) W 270 -1,6 C -0,9 C 19,1 km/h (3 Bft)
18.01.2019 05:11 15,1 C 2,0 C 2,1 C 57 % 77 % 1012,3 hPa 0,0 l/m 10,0 km/h (2 Bft) W 270 -1,6 C -0,9 C 19,1 km/h (3 Bft)
18.01.2019 05:10 15,1 C 2,1 C 2,1 C 57 % 77 % 1012,3 hPa 0,0 l/m 10,3 km/h (2 Bft) O-NO 67 -1,5 C -0,9 C 15,4 km/h (3 Bft)
18.01.2019 05:09 15,1 C 2,1 C 2,1 C 57 % 77 % 1012,3 hPa 0,0 l/m 10,3 km/h (2 Bft) O-NO 67 -1,5 C -0,9 C 15,4 km/h (3 Bft)
18.01.2019 05:08 15,1 C 2,1 C 2,1 C 57 % 77 % 1012,3 hPa 0,0 l/m 10,5 km/h (2 Bft) W 270 -1,5 C -0,9 C 11,3 km/h (2 Bft)
18.01.2019 05:07 15,1 C 2,1 C 2,1 C 57 % 77 % 1012,3 hPa 0,0 l/m 10,5 km/h (2 Bft) W 270 -1,5 C -0,9 C 11,3 km/h (2 Bft)
18.01.2019 05:06 15,1 C 2,1 C 2,1 C 57 % 77 % 1012,3 hPa 0,0 l/m 10,5 km/h (2 Bft) W 270 -1,5 C -0,9 C 15,7 km/h (3 Bft)
18.01.2019 05:05 15,1 C 2,1 C 2,1 C 57 % 77 % 1012,3 hPa 0,0 l/m 10,5 km/h (2 Bft) W 270 -1,5 C -0,9 C 15,7 km/h (3 Bft)
18.01.2019 05:04 15,1 C 2,1 C 2,1 C 57 % 77 % 1012,3 hPa 0,0 l/m 10,6 km/h (2 Bft) W-NW 292 -1,5 C -0,9 C 14,7 km/h (3 Bft)
18.01.2019 05:03 15,1 C 2,1 C 2,1 C 57 % 77 % 1012,3 hPa 0,0 l/m 10,6 km/h (2 Bft) W-NW 292 -1,5 C -0,9 C 14,7 km/h (3 Bft)
18.01.2019 05:02 15,1 C 2,1 C 2,1 C 57 % 77 % 1012,3 hPa 0,0 l/m 10,9 km/h (2 Bft) W-SW 247 -1,5 C -1,0 C 23,9 km/h (4 Bft)
18.01.2019 05:01 15,1 C 2,1 C 2,1 C 57 % 77 % 1012,3 hPa 0,0 l/m 10,9 km/h (2 Bft) W-SW 247 -1,5 C -1,0 C 23,9 km/h (4 Bft)
18.01.2019 05:00 15,1 C 2,1 C 2,1 C 57 % 77 % 1012,3 hPa 0,0 l/m 10,8 km/h (2 Bft) W-SW 247 -1,5 C -1,0 C 23,9 km/h (4 Bft)
18.01.2019 04:59 15,1 C 2,1 C 2,1 C 57 % 77 % 1012,3 hPa 0,0 l/m 10,8 km/h (2 Bft) W-SW 247 -1,5 C -1,0 C 23,9 km/h (4 Bft)
18.01.2019 04:58 15,2 C 2,1 C 2,0 C 57 % 77 % 1012,3 hPa 0,0 l/m 10,8 km/h (2 Bft) W 270 -1,5 C -1,0 C 19,6 km/h (3 Bft)
18.01.2019 04:57 15,2 C 2,1 C 2,0 C 57 % 77 % 1012,3 hPa 0,0 l/m 10,8 km/h (2 Bft) W 270 -1,5 C -1,0 C 19,6 km/h (3 Bft)
18.01.2019 04:56 15,2 C 2,2 C 2,1 C 57 % 77 % 1012,3 hPa 0,0 l/m 10,1 km/h (2 Bft) W 270 -1,4 C -0,7 C 10,9 km/h (2 Bft)
18.01.2019 04:55 15,2 C 2,2 C 2,1 C 57 % 77 % 1012,3 hPa 0,0 l/m 10,1 km/h (2 Bft) W 270 -1,4 C -0,7 C 10,9 km/h (2 Bft)
18.01.2019 04:54 15,2 C 2,2 C 2,1 C 57 % 77 % 1012,3 hPa 0,0 l/m 9,8 km/h (2 Bft) W 270 -1,4 C -0,6 C 22,2 km/h (4 Bft)
18.01.2019 04:53 15,2 C 2,2 C 2,1 C 57 % 77 % 1012,3 hPa 0,0 l/m 9,8 km/h (2 Bft) W 270 -1,4 C -0,6 C 22,2 km/h (4 Bft)
18.01.2019 04:52 15,2 C 2,2 C 2,2 C 57 % 77 % 1012,3 hPa 0,0 l/m 9,8 km/h (2 Bft) NW 315 -1,4 C -0,6 C 18,6 km/h (3 Bft)
18.01.2019 04:51 15,2 C 2,2 C 2,2 C 57 % 77 % 1012,3 hPa 0,0 l/m 9,8 km/h (2 Bft) NW 315 -1,4 C -0,6 C 18,6 km/h (3 Bft)
18.01.2019 04:50 15,2 C 2,2 C 2,2 C 57 % 77 % 1012,3 hPa 0,0 l/m 9,8 km/h (2 Bft) W 270 -1,4 C -0,6 C 26,6 km/h (4 Bft)
18.01.2019 04:49 15,2 C 2,2 C 2,2 C 57 % 77 % 1012,3 hPa 0,0 l/m 9,8 km/h (2 Bft) W 270 -1,4 C -0,6 C 26,6 km/h (4 Bft)
18.01.2019 04:48 15,2 C 2,2 C 2,2 C 57 % 76 % 1012,3 hPa 0,0 l/m 9,7 km/h (2 Bft) O-NO 67 -1,6 C -0,6 C 24,6 km/h (4 Bft)
18.01.2019 04:47 15,2 C 2,2 C 2,2 C 57 % 76 % 1012,3 hPa 0,0 l/m 9,7 km/h (2 Bft) O-NO 67 -1,6 C -0,6 C 24,6 km/h (4 Bft)
18.01.2019 04:46 15,2 C 2,3 C 2,3 C 57 % 76 % 1012,3 hPa 0,0 l/m 10,1 km/h (2 Bft) NW 315 -1,5 C -0,6 C 8,4 km/h (2 Bft)
18.01.2019 04:45 15,2 C 2,3 C 2,3 C 57 % 76 % 1012,3 hPa 0,0 l/m 10,1 km/h (2 Bft) NW 315 -1,5 C -0,6 C 8,4 km/h (2 Bft)
18.01.2019 04:44 15,2 C 2,3 C 2,3 C 57 % 76 % 1012,3 hPa 0,0 l/m 10,1 km/h (2 Bft) W 270 -1,5 C -0,6 C 20,5 km/h (4 Bft)
18.01.2019 04:43 15,2 C 2,3 C 2,3 C 57 % 76 % 1012,3 hPa 0,0 l/m 10,1 km/h (2 Bft) W 270 -1,5 C -0,6 C 20,5 km/h (4 Bft)
18.01.2019 04:42 15,2 C 2,3 C 2,4 C 57 % 76 % 1012,3 hPa 0,0 l/m 11,3 km/h (2 Bft) W 270 -1,5 C -0,9 C 16,7 km/h (3 Bft)
18.01.2019 04:41 15,2 C 2,3 C 2,4 C 57 % 76 % 1012,3 hPa 0,0 l/m 11,3 km/h (2 Bft) W 270 -1,5 C -0,9 C 16,7 km/h (3 Bft)
18.01.2019 04:40 15,2 C 2,4 C 2,4 C 57 % 76 % 1012,3 hPa 0,0 l/m 11,9 km/h (2 Bft) W 270 -1,4 C -0,9 C 12,8 km/h (3 Bft)
18.01.2019 04:39 15,2 C 2,4 C 2,4 C 57 % 76 % 1012,3 hPa 0,0 l/m 11,9 km/h (2 Bft) W 270 -1,4 C -0,9 C 12,8 km/h (3 Bft)
18.01.2019 04:38 15,2 C 2,4 C 2,6 C 57 % 76 % 1012,3 hPa 0,0 l/m 11,9 km/h (2 Bft) W 270 -1,4 C -0,9 C 19,1 km/h (3 Bft)
18.01.2019 04:37 15,2 C 2,4 C 2,6 C 57 % 76 % 1012,3 hPa 0,0 l/m 11,9 km/h (2 Bft) W 270 -1,4 C -0,9 C 19,1 km/h (3 Bft)
18.01.2019 04:36 15,2 C 2,6 C 2,6 C 57 % 75 % 1012,3 hPa 0,0 l/m 11,4 km/h (2 Bft) SW 225 -1,4 C -0,5 C 24,4 km/h (4 Bft)
18.01.2019 04:35 15,2 C 2,6 C 2,6 C 57 % 75 % 1012,3 hPa 0,0 l/m 11,4 km/h (2 Bft) SW 225 -1,4 C -0,5 C 24,4 km/h (4 Bft)
18.01.2019 04:34 15,2 C 2,6 C 2,6 C 57 % 75 % 1012,4 hPa 0,0 l/m 11,3 km/h (2 Bft) NW 315 -1,4 C -0,5 C 18,1 km/h (3 Bft)
18.01.2019 04:33 15,2 C 2,6 C 2,6 C 57 % 75 % 1012,4 hPa 0,0 l/m 11,3 km/h (2 Bft) NW 315 -1,4 C -0,5 C 18,1 km/h (3 Bft)
18.01.2019 04:32 15,2 C 2,6 C 2,7 C 57 % 75 % 1012,4 hPa 0,0 l/m 10,9 km/h (2 Bft) W-SW 247 -1,4 C -0,4 C 31,1 km/h (5 Bft)
18.01.2019 04:31 15,2 C 2,6 C 2,7 C 57 % 75 % 1012,4 hPa 0,0 l/m 10,9 km/h (2 Bft) W-SW 247 -1,4 C -0,4 C 31,1 km/h (5 Bft)
18.01.2019 04:30 15,2 C 2,7 C 2,7 C 57 % 75 % 1012,4 hPa 0,0 l/m 10,5 km/h (2 Bft) W 270 -1,3 C -0,2 C 26,3 km/h (4 Bft)
18.01.2019 04:29 15,2 C 2,7 C 2,7 C 57 % 75 % 1012,4 hPa 0,0 l/m 10,5 km/h (2 Bft) W 270 -1,3 C -0,2 C 26,3 km/h (4 Bft)
18.01.2019 04:28 15,1 C 2,7 C 2,7 C 57 % 75 % 1012,4 hPa 0,0 l/m 9,7 km/h (2 Bft) W-SW 247 -1,3 C -0,0 C 17,6 km/h (3 Bft)
18.01.2019 04:27 15,1 C 2,7 C 2,7 C 57 % 75 % 1012,4 hPa 0,0 l/m 9,7 km/h (2 Bft) W-SW 247 -1,3 C -0,0 C 17,6 km/h (3 Bft)
18.01.2019 04:26 15,1 C 2,7 C 2,7 C 57 % 75 % 1012,4 hPa 0,0 l/m 9,5 km/h (2 Bft) W 270 -1,3 C 0,0 C 15,2 km/h (3 Bft)
18.01.2019 04:25 15,1 C 2,7 C 2,7 C 57 % 75 % 1012,4 hPa 0,0 l/m 9,5 km/h (2 Bft) W 270 -1,3 C 0,0 C 15,2 km/h (3 Bft)
18.01.2019 04:24 15,1 C 2,7 C 2,6 C 57 % 75 % 1012,4 hPa 0,0 l/m 8,9 km/h (2 Bft) W-SW 247 -1,3 C 0,2 C 16,7 km/h (3 Bft)
18.01.2019 04:23 15,1 C 2,7 C 2,6 C 57 % 75 % 1012,4 hPa 0,0 l/m 8,9 km/h (2 Bft) W-SW 247 -1,3 C 0,2 C 16,7 km/h (3 Bft)
18.01.2019 04:22 15,2 C 2,7 C 2,6 C 57 % 75 % 1012,4 hPa 0,0 l/m 7,9 km/h (2 Bft) W 270 -1,3 C 0,5 C 15,7 km/h (3 Bft)
18.01.2019 04:21 15,2 C 2,7 C 2,6 C 57 % 75 % 1012,4 hPa 0,0 l/m 7,9 km/h (2 Bft) W 270 -1,3 C 0,5 C 15,7 km/h (3 Bft)
18.01.2019 04:20 15,1 C 2,7 C 2,6 C 57 % 75 % 1012,4 hPa 0,0 l/m 7,1 km/h (2 Bft) N 360 -1,3 C 0,7 C 17,9 km/h (3 Bft)
18.01.2019 04:19 15,1 C 2,7 C 2,6 C 57 % 75 % 1012,4 hPa 0,0 l/m 7,1 km/h (2 Bft) N 360 -1,3 C 0,7 C 17,9 km/h (3 Bft)
18.01.2019 04:18 15,1 C 2,6 C 2,6 C 57 % 75 % 1012,4 hPa 0,0 l/m 6,3 km/h (2 Bft) W 270 -1,4 C 0,9 C 19,3 km/h (3 Bft)
18.01.2019 04:17 15,1 C 2,6 C 2,6 C 57 % 75 % 1012,4 hPa 0,0 l/m 6,3 km/h (2 Bft) W 270 -1,4 C 0,9 C 19,3 km/h (3 Bft)
18.01.2019 04:16 15,1 C 2,6 C 2,4 C 57 % 75 % 1012,4 hPa 0,0 l/m 6,0 km/h (2 Bft) W 270 -1,4 C 1,0 C 16,4 km/h (3 Bft)
18.01.2019 04:15 15,1 C 2,6 C 2,4 C 57 % 75 % 1012,4 hPa 0,0 l/m 6,0 km/h (2 Bft) W 270 -1,4 C 1,0 C 16,4 km/h (3 Bft)
18.01.2019 04:14 15,1 C 2,6 C 2,3 C 57 % 75 % 1012,3 hPa 0,0 l/m 5,8 km/h (2 Bft) W 270 -1,4 C 1,0 C 10,6 km/h (2 Bft)
18.01.2019 04:13 15,1 C 2,6 C 2,3 C 57 % 75 % 1012,3 hPa 0,0 l/m 5,8 km/h (2 Bft) W 270 -1,4 C 1,0 C 10,6 km/h (2 Bft)
18.01.2019 04:12 15,1 C 2,6 C 2,4 C 57 % 75 % 1012,3 hPa 0,0 l/m 6,0 km/h (2 Bft) W 270 -1,4 C 1,0 C 9,2 km/h (2 Bft)
18.01.2019 04:11 15,1 C 2,6 C 2,4 C 57 % 75 % 1012,3 hPa 0,0 l/m 6,0 km/h (2 Bft) W 270 -1,4 C 1,0 C 9,2 km/h (2 Bft)
18.01.2019 04:10 15,1 C 2,6 C 2,4 C 57 % 75 % 1012,3 hPa 0,0 l/m 6,0 km/h (2 Bft) W 270 -1,4 C 1,0 C 10,6 km/h (2 Bft)
18.01.2019 04:09 15,1 C 2,6 C 2,4 C 57 % 75 % 1012,3 hPa 0,0 l/m 6,0 km/h (2 Bft) W 270 -1,4 C 1,0 C 10,6 km/h (2 Bft)
18.01.2019 04:08 15,1 C 2,6 C 2,4 C 56 % 75 % 1012,3 hPa 0,0 l/m 6,0 km/h (2 Bft) NW 315 -1,4 C 1,0 C 10,1 km/h (2 Bft)
18.01.2019 04:07 15,1 C 2,6 C 2,4 C 56 % 75 % 1012,3 hPa 0,0 l/m 6,0 km/h (2 Bft) NW 315 -1,4 C 1,0 C 10,1 km/h (2 Bft)
18.01.2019 04:06 15,1 C 2,6 C 2,3 C 56 % 75 % 1012,3 hPa 0,0 l/m 6,3 km/h (2 Bft) N-NW 337 -1,4 C 0,9 C 14,5 km/h (3 Bft)
18.01.2019 04:05 15,1 C 2,6 C 2,3 C 56 % 75 % 1012,3 hPa 0,0 l/m 6,3 km/h (2 Bft) N-NW 337 -1,4 C 0,9 C 14,5 km/h (3 Bft)
18.01.2019 04:04 15,1 C 2,6 C 2,4 C 56 % 75 % 1012,3 hPa 0,0 l/m 6,3 km/h (2 Bft) W-NW 292 -1,4 C 0,9 C 8,7 km/h (2 Bft)
18.01.2019 04:03 15,1 C 2,6 C 2,4 C 56 % 75 % 1012,3 hPa 0,0 l/m 6,3 km/h (2 Bft) W-NW 292 -1,4 C 0,9 C 8,7 km/h (2 Bft)
18.01.2019 04:02 15,3 C 2,6 C 2,3 C 56 % 75 % 1012,3 hPa 0,0 l/m 7,1 km/h (2 Bft) W 270 -1,4 C 0,6 C 8,9 km/h (2 Bft)
18.01.2019 04:01 15,3 C 2,6 C 2,3 C 56 % 75 % 1012,3 hPa 0,0 l/m 7,1 km/h (2 Bft) W 270 -1,4 C 0,6 C 8,9 km/h (2 Bft)
18.01.2019 04:00 15,1 C 2,6 C 2,4 C 56 % 75 % 1012,3 hPa 0,0 l/m 7,6 km/h (2 Bft) W 270 -1,4 C 0,4 C 10,6 km/h (2 Bft)
18.01.2019 03:59 15,1 C 2,6 C 2,4 C 56 % 75 % 1012,3 hPa 0,0 l/m 7,6 km/h (2 Bft) W 270 -1,4 C 0,4 C 10,6 km/h (2 Bft)
18.01.2019 03:58 15,3 C 2,7 C 2,4 C 56 % 75 % 1012,3 hPa 0,0 l/m 8,2 km/h (2 Bft) W 270 -1,3 C 0,4 C 10,1 km/h (2 Bft)
18.01.2019 03:57 15,3 C 2,7 C 2,4 C 56 % 75 % 1012,3 hPa 0,0 l/m 8,2 km/h (2 Bft) W 270 -1,3 C 0,4 C 10,1 km/h (2 Bft)
18.01.2019 03:56 15,3 C 2,7 C 2,4 C 56 % 75 % 1012,3 hPa 0,0 l/m 8,4 km/h (2 Bft) NW 315 -1,3 C 0,3 C 13,8 km/h (3 Bft)
18.01.2019 03:55 15,3 C 2,7 C 2,4 C 56 % 75 % 1012,3 hPa 0,0 l/m 8,4 km/h (2 Bft) NW 315 -1,3 C 0,3 C 13,8 km/h (3 Bft)
18.01.2019 03:54 15,3 C 2,7 C 2,4 C 56 % 75 % 1012,2 hPa 0,0 l/m 8,5 km/h (2 Bft) W 270 -1,3 C 0,3 C 17,4 km/h (3 Bft)
18.01.2019 03:53 15,3 C 2,7 C 2,4 C 56 % 75 % 1012,2 hPa 0,0 l/m 8,5 km/h (2 Bft) W 270 -1,3 C 0,3 C 17,4 km/h (3 Bft)
18.01.2019 03:52 15,3 C 2,6 C 2,3 C 56 % 75 % 1012,2 hPa 0,0 l/m 8,2 km/h (2 Bft) W 270 -1,4 C 0,3 C 29,2 km/h (5 Bft)
18.01.2019 03:51 15,3 C 2,6 C 2,3 C 56 % 75 % 1012,2 hPa 0,0 l/m 8,2 km/h (2 Bft) W 270 -1,4 C 0,3 C 29,2 km/h (5 Bft)
18.01.2019 03:50 15,2 C 2,6 C 2,3 C 56 % 75 % 1012,2 hPa 0,0 l/m 7,7 km/h (2 Bft) NW 315 -1,4 C 0,4 C 9,4 km/h (2 Bft)
18.01.2019 03:49 15,2 C 2,6 C 2,3 C 56 % 75 % 1012,2 hPa 0,0 l/m 7,7 km/h (2 Bft) NW 315 -1,4 C 0,4 C 9,4 km/h (2 Bft)
18.01.2019 03:48 15,3 C 2,6 C 2,3 C 56 % 75 % 1012,2 hPa 0,0 l/m 6,9 km/h (2 Bft) W 270 -1,4 C 0,7 C 17,4 km/h (3 Bft)
18.01.2019 03:47 15,3 C 2,6 C 2,3 C 56 % 75 % 1012,2 hPa 0,0 l/m 6,9 km/h (2 Bft) W 270 -1,4 C 0,7 C 17,4 km/h (3 Bft)
18.01.2019 03:46 15,2 C 2,4 C 2,2 C 56 % 75 % 1012,2 hPa 0,0 l/m 6,8 km/h (2 Bft) W-SW 247 -1,6 C 0,5 C 15,4 km/h (3 Bft)
18.01.2019 03:45 15,2 C 2,4 C 2,2 C 56 % 75 % 1012,2 hPa 0,0 l/m 6,8 km/h (2 Bft) W-SW 247 -1,6 C 0,5 C 15,4 km/h (3 Bft)
18.01.2019 03:44 15,2 C 2,4 C 2,1 C 56 % 75 % 1012,2 hPa 0,0 l/m 6,3 km/h (2 Bft) W 270 -1,6 C 0,6 C 11,8 km/h (2 Bft)
18.01.2019 03:43 15,2 C 2,4 C 2,1 C 56 % 75 % 1012,2 hPa 0,0 l/m 6,3 km/h (2 Bft) W 270 -1,6 C 0,6 C 11,8 km/h (2 Bft)
18.01.2019 03:42 15,2 C 2,4 C 2,2 C 56 % 75 % 1012,2 hPa 0,0 l/m 6,1 km/h (2 Bft) W-NW 292 -1,6 C 0,7 C 9,7 km/h (2 Bft)
18.01.2019 03:41 15,2 C 2,4 C 2,2 C 56 % 75 % 1012,2 hPa 0,0 l/m 6,1 km/h (2 Bft) W-NW 292 -1,6 C 0,7 C 9,7 km/h (2 Bft)
18.01.2019 03:40 15,2 C 2,4 C 2,0 C 56 % 75 % 1012,2 hPa 0,0 l/m 5,8 km/h (2 Bft) SW 225 -1,6 C 0,8 C 9,9 km/h (2 Bft)
18.01.2019 03:39 15,2 C 2,4 C 2,0 C 56 % 75 % 1012,2 hPa 0,0 l/m 5,8 km/h (2 Bft) SW 225 -1,6 C 0,8 C 9,9 km/h (2 Bft)
18.01.2019 03:38 15,2 C 2,6 C 2,2 C 56 % 75 % 1012,2 hPa 0,0 l/m 5,5 km/h (1 Bft) W 270 -1,4 C 1,2 C 9,2 km/h (2 Bft)
18.01.2019 03:37 15,2 C 2,6 C 2,2 C 56 % 75 % 1012,2 hPa 0,0 l/m 5,5 km/h (1 Bft) W 270 -1,4 C 1,2 C 9,2 km/h (2 Bft)
18.01.2019 03:36 15,2 C 2,6 C 2,2 C 56 % 75 % 1012,2 hPa 0,0 l/m 5,3 km/h (1 Bft) NW 315 -1,4 C 1,2 C 12,1 km/h (2 Bft)
18.01.2019 03:35 15,2 C 2,6 C 2,2 C 56 % 75 % 1012,2 hPa 0,0 l/m 5,3 km/h (1 Bft) NW 315 -1,4 C 1,2 C 12,1 km/h (2 Bft)
18.01.2019 03:34 15,2 C 2,6 C 2,2 C 56 % 75 % 1012,1 hPa 0,0 l/m 5,1 km/h (1 Bft) N 360 -1,4 C 1,3 C 12,3 km/h (3 Bft)
18.01.2019 03:33 15,2 C 2,6 C 2,2 C 56 % 75 % 1012,1 hPa 0,0 l/m 5,1 km/h (1 Bft) N 360 -1,4 C 1,3 C 12,3 km/h (3 Bft)
18.01.2019 03:32 15,4 C 2,7 C 2,3 C 56 % 75 % 1012,1 hPa 0,0 l/m 5,5 km/h (1 Bft) W-SW 247 -1,3 C 1,3 C 7,7 km/h (2 Bft)
18.01.2019 03:31 15,4 C 2,7 C 2,3 C 56 % 75 % 1012,1 hPa 0,0 l/m 5,5 km/h (1 Bft) W-SW 247 -1,3 C 1,3 C 7,7 km/h (2 Bft)
18.01.2019 03:30 15,2 C 2,7 C 2,3 C 56 % 75 % 1012,1 hPa 0,0 l/m 5,8 km/h (2 Bft) NW 315 -1,3 C 1,2 C 11,6 km/h (2 Bft)
18.01.2019 03:29 15,2 C 2,7 C 2,3 C 56 % 75 % 1012,1 hPa 0,0 l/m 5,8 km/h (2 Bft) NW 315 -1,3 C 1,2 C 11,6 km/h (2 Bft)
18.01.2019 03:28 15,2 C 2,7 C 2,3 C 56 % 75 % 1012,1 hPa 0,0 l/m 6,3 km/h (2 Bft) W 270 -1,3 C 1,0 C 7,5 km/h (2 Bft)
18.01.2019 03:27 15,2 C 2,7 C 2,3 C 56 % 75 % 1012,1 hPa 0,0 l/m 6,3 km/h (2 Bft) W 270 -1,3 C 1,0 C 7,5 km/h (2 Bft)
18.01.2019 03:26 15,4 C 2,7 C 2,4 C 56 % 75 % 1012,1 hPa 0,0 l/m 7,2 km/h (2 Bft) W 270 -1,3 C 0,7 C 8,2 km/h (2 Bft)
18.01.2019 03:25 15,4 C 2,7 C 2,4 C 56 % 75 % 1012,1 hPa 0,0 l/m 7,2 km/h (2 Bft) W 270 -1,3 C 0,7 C 8,2 km/h (2 Bft)
18.01.2019 03:24 15,4 C 2,8 C 2,6 C 56 % 75 % 1012,1 hPa 0,0 l/m 7,1 km/h (2 Bft) W 270 -1,2 C 0,8 C 9,9 km/h (2 Bft)
18.01.2019 03:23 15,4 C 2,8 C 2,6 C 56 % 75 % 1012,1 hPa 0,0 l/m 7,1 km/h (2 Bft) W 270 -1,2 C 0,8 C 9,9 km/h (2 Bft)
18.01.2019 03:22 15,4 C 2,7 C 2,6 C 56 % 75 % 1012,1 hPa 0,0 l/m 7,2 km/h (2 Bft) W 270 -1,3 C 0,7 C 15,4 km/h (3 Bft)
18.01.2019 03:21 15,4 C 2,7 C 2,6 C 56 % 75 % 1012,1 hPa 0,0 l/m 7,2 km/h (2 Bft) W 270 -1,3 C 0,7 C 15,4 km/h (3 Bft)
18.01.2019 03:20 15,4 C 2,7 C 2,4 C 56 % 75 % 1012,1 hPa 0,0 l/m 7,4 km/h (2 Bft) W 270 -1,3 C 0,6 C 14,7 km/h (3 Bft)
18.01.2019 03:19 15,4 C 2,7 C 2,4 C 56 % 75 % 1012,1 hPa 0,0 l/m 7,4 km/h (2 Bft) W 270 -1,3 C 0,6 C 14,7 km/h (3 Bft)
18.01.2019 03:18 15,4 C 2,7 C 2,4 C 56 % 75 % 1012,1 hPa 0,0 l/m 7,4 km/h (2 Bft) W-SW 247 -1,3 C 0,6 C 13,0 km/h (3 Bft)
18.01.2019 03:17 15,4 C 2,7 C 2,4 C 56 % 75 % 1012,1 hPa 0,0 l/m 7,4 km/h (2 Bft) W-SW 247 -1,3 C 0,6 C 13,0 km/h (3 Bft)
18.01.2019 03:16 15,4 C 2,7 C 2,4 C 55 % 75 % 1012,1 hPa 0,0 l/m 8,0 km/h (2 Bft) W-SW 247 -1,3 C 0,4 C 10,4 km/h (2 Bft)
18.01.2019 03:15 15,4 C 2,7 C 2,4 C 55 % 75 % 1012,1 hPa 0,0 l/m 8,0 km/h (2 Bft) W-SW 247 -1,3 C 0,4 C 10,4 km/h (2 Bft)
18.01.2019 03:14 15,4 C 2,7 C 2,4 C 56 % 75 % 1012,1 hPa 0,0 l/m 8,5 km/h (2 Bft) W-NW 292 -1,3 C 0,3 C 10,1 km/h (2 Bft)
18.01.2019 03:13 15,4 C 2,7 C 2,4 C 56 % 75 % 1012,1 hPa 0,0 l/m 8,5 km/h (2 Bft) W-NW 292 -1,3 C 0,3 C 10,1 km/h (2 Bft)
18.01.2019 03:12 15,4 C 2,7 C 2,4 C 55 % 75 % 1012,1 hPa 0,0 l/m 9,2 km/h (2 Bft) W-SW 247 -1,3 C 0,1 C 16,9 km/h (3 Bft)
18.01.2019 03:11 15,4 C 2,7 C 2,4 C 55 % 75 % 1012,1 hPa 0,0 l/m 9,2 km/h (2 Bft) W-SW 247 -1,3 C 0,1 C 16,9 km/h (3 Bft)
18.01.2019 03:10 15,4 C 2,8 C 2,4 C 55 % 75 % 1012,1 hPa 0,0 l/m 9,3 km/h (2 Bft) W 270 -1,2 C 0,2 C 8,0 km/h (2 Bft)
18.01.2019 03:09 15,4 C 2,8 C 2,4 C 55 % 75 % 1012,1 hPa 0,0 l/m 9,3 km/h (2 Bft) W 270 -1,2 C 0,2 C 8,0 km/h (2 Bft)
18.01.2019 03:08 15,3 C 2,8 C 2,6 C 55 % 75 % 1012,1 hPa 0,0 l/m 10,1 km/h (2 Bft) W 270 -1,2 C 0,0 C 12,3 km/h (3 Bft)
18.01.2019 03:07 15,3 C 2,8 C 2,6 C 55 % 75 % 1012,1 hPa 0,0 l/m 10,1 km/h (2 Bft) W 270 -1,2 C 0,0 C 12,3 km/h (3 Bft)
18.01.2019 03:06 15,4 C 2,8 C 2,7 C 55 % 75 % 1012,1 hPa 0,0 l/m 11,1 km/h (2 Bft) W-SW 247 -1,2 C -0,2 C 24,4 km/h (4 Bft)
18.01.2019 03:05 15,4 C 2,8 C 2,7 C 55 % 75 % 1012,1 hPa 0,0 l/m 11,1 km/h (2 Bft) W-SW 247 -1,2 C -0,2 C 24,4 km/h (4 Bft)
18.01.2019 03:04 15,3 C 2,8 C 2,6 C 55 % 75 % 1012,1 hPa 0,0 l/m 9,8 km/h (2 Bft) W-SW 247 -1,2 C 0,1 C 21,0 km/h (4 Bft)
18.01.2019 03:03 15,3 C 2,8 C 2,6 C 55 % 75 % 1012,1 hPa 0,0 l/m 9,8 km/h (2 Bft) W-SW 247 -1,2 C 0,1 C 21,0 km/h (4 Bft)
18.01.2019 03:02 15,3 C 2,8 C 2,6 C 55 % 75 % 1012,1 hPa 0,0 l/m 9,8 km/h (2 Bft) W-SW 247 -1,2 C 0,1 C 21,0 km/h (4 Bft)
18.01.2019 03:01 15,3 C 2,8 C 2,6 C 55 % 75 % 1012,1 hPa 0,0 l/m 9,8 km/h (2 Bft) W-SW 247 -1,2 C 0,1 C 21,0 km/h (4 Bft)
18.01.2019 03:00 15,3 C 2,8 C 2,6 C 55 % 75 % 1012,1 hPa 0,0 l/m 9,2 km/h (2 Bft) NW 315 -1,2 C 0,2 C 15,0 km/h (3 Bft)
18.01.2019 02:59 15,3 C 2,8 C 2,6 C 55 % 75 % 1012,1 hPa 0,0 l/m 9,2 km/h (2 Bft) NW 315 -1,2 C 0,2 C 15,0 km/h (3 Bft)
18.01.2019 02:58 15,3 C 2,8 C 2,4 C 55 % 75 % 1012,1 hPa 0,0 l/m 9,2 km/h (2 Bft) W-NW 292 -1,2 C 0,2 C 14,2 km/h (3 Bft)
18.01.2019 02:57 15,3 C 2,8 C 2,4 C 55 % 75 % 1012,1 hPa 0,0 l/m 9,2 km/h (2 Bft) W-NW 292 -1,2 C 0,2 C 14,2 km/h (3 Bft)
18.01.2019 02:56 15,3 C 2,8 C 2,4 C 55 % 75 % 1012,1 hPa 0,0 l/m 8,7 km/h (2 Bft) W 270 -1,2 C 0,4 C 17,4 km/h (3 Bft)
18.01.2019 02:55 15,3 C 2,8 C 2,4 C 55 % 75 % 1012,1 hPa 0,0 l/m 8,7 km/h (2 Bft) W 270 -1,2 C 0,4 C 17,4 km/h (3 Bft)
18.01.2019 02:54 15,5 C 2,8 C 2,6 C 55 % 75 % 1012,3 hPa 0,0 l/m 8,7 km/h (2 Bft) W 270 -1,2 C 0,4 C 11,8 km/h (2 Bft)
18.01.2019 02:53 15,5 C 2,8 C 2,6 C 55 % 75 % 1012,3 hPa 0,0 l/m 8,7 km/h (2 Bft) W 270 -1,2 C 0,4 C 11,8 km/h (2 Bft)
18.01.2019 02:52 15,3 C 2,8 C 2,4 C 55 % 75 % 1012,3 hPa 0,0 l/m 8,9 km/h (2 Bft) W 270 -1,2 C 0,3 C 15,0 km/h (3 Bft)
18.01.2019 02:51 15,3 C 2,8 C 2,4 C 55 % 75 % 1012,3 hPa 0,0 l/m 8,9 km/h (2 Bft) W 270 -1,2 C 0,3 C 15,0 km/h (3 Bft)
18.01.2019 02:50 15,5 C 2,8 C 2,6 C 55 % 75 % 1012,3 hPa 0,0 l/m 9,3 km/h (2 Bft) W 270 -1,2 C 0,2 C 15,4 km/h (3 Bft)
18.01.2019 02:49 15,5 C 2,8 C 2,6 C 55 % 75 % 1012,3 hPa 0,0 l/m 9,3 km/h (2 Bft) W 270 -1,2 C 0,2 C 15,4 km/h (3 Bft)
18.01.2019 02:48 15,5 C 2,8 C 2,6 C 55 % 75 % 1012,3 hPa 0,0 l/m 9,5 km/h (2 Bft) W-NW 292 -1,2 C 0,2 C 11,8 km/h (2 Bft)
18.01.2019 02:47 15,5 C 2,8 C 2,6 C 55 % 75 % 1012,3 hPa 0,0 l/m 9,5 km/h (2 Bft) W-NW 292 -1,2 C 0,2 C 11,8 km/h (2 Bft)
18.01.2019 02:46 15,5 C 2,8 C 2,6 C 55 % 75 % 1012,3 hPa 0,0 l/m 9,2 km/h (2 Bft) NW 315 -1,2 C 0,2 C 15,2 km/h (3 Bft)
18.01.2019 02:45 15,5 C 2,8 C 2,6 C 55 % 75 % 1012,3 hPa 0,0 l/m 9,2 km/h (2 Bft) NW 315 -1,2 C 0,2 C 15,2 km/h (3 Bft)
18.01.2019 02:44 15,5 C 2,8 C 2,6 C 55 % 75 % 1012,3 hPa 0,0 l/m 9,2 km/h (2 Bft) W-SW 247 -1,2 C 0,2 C 19,6 km/h (3 Bft)
18.01.2019 02:43 15,5 C 2,8 C 2,6 C 55 % 75 % 1012,3 hPa 0,0 l/m 9,2 km/h (2 Bft) W-SW 247 -1,2 C 0,2 C 19,6 km/h (3 Bft)
18.01.2019 02:42 15,5 C 2,8 C 2,4 C 55 % 75 % 1012,3 hPa 0,0 l/m 9,0 km/h (2 Bft) W 270 -1,2 C 0,3 C 16,7 km/h (3 Bft)
18.01.2019 02:41 15,5 C 2,8 C 2,4 C 55 % 75 % 1012,3 hPa 0,0 l/m 9,0 km/h (2 Bft) W 270 -1,2 C 0,3 C 16,7 km/h (3 Bft)
18.01.2019 02:40 15,5 C 2,7 C 2,3 C 55 % 75 % 1012,3 hPa 0,0 l/m 9,0 km/h (2 Bft) W 270 -1,3 C 0,2 C 18,1 km/h (3 Bft)
18.01.2019 02:39 15,5 C 2,7 C 2,3 C 55 % 75 % 1012,3 hPa 0,0 l/m 9,0 km/h (2 Bft) W 270 -1,3 C 0,2 C 18,1 km/h (3 Bft)
18.01.2019 02:38 15,4 C 2,7 C 2,3 C 55 % 75 % 1012,3 hPa 0,0 l/m 9,0 km/h (2 Bft) W 270 -1,3 C 0,2 C 22,9 km/h (4 Bft)
18.01.2019 02:37 15,4 C 2,7 C 2,3 C 55 % 75 % 1012,3 hPa 0,0 l/m 9,0 km/h (2 Bft) W 270 -1,3 C 0,2 C 22,9 km/h (4 Bft)
18.01.2019 02:36 15,4 C 2,8 C 2,2 C 55 % 75 % 1012,3 hPa 0,0 l/m 8,7 km/h (2 Bft) W-NW 292 -1,2 C 0,4 C 10,6 km/h (2 Bft)
18.01.2019 02:35 15,4 C 2,8 C 2,2 C 55 % 75 % 1012,3 hPa 0,0 l/m 8,7 km/h (2 Bft) W-NW 292 -1,2 C 0,4 C 10,6 km/h (2 Bft)
18.01.2019 02:34 15,4 C 2,8 C 2,3 C 55 % 75 % 1012,2 hPa 0,0 l/m 9,7 km/h (2 Bft) W 270 -1,2 C 0,1 C 13,0 km/h (3 Bft)
18.01.2019 02:33 15,4 C 2,8 C 2,3 C 55 % 75 % 1012,2 hPa 0,0 l/m 9,7 km/h (2 Bft) W 270 -1,2 C 0,1 C 13,0 km/h (3 Bft)
18.01.2019 02:32 15,4 C 2,8 C 2,4 C 55 % 75 % 1012,2 hPa 0,0 l/m 10,3 km/h (2 Bft) W-SW 247 -1,2 C -0,0 C 16,4 km/h (3 Bft)
18.01.2019 02:31 15,4 C 2,8 C 2,4 C 55 % 75 % 1012,2 hPa 0,0 l/m 10,3 km/h (2 Bft) W-SW 247 -1,2 C -0,0 C 16,4 km/h (3 Bft)
18.01.2019 02:30 15,4 C 2,9 C 2,4 C 54 % 75 % 1012,2 hPa 0,0 l/m 10,1 km/h (2 Bft) W 270 -1,1 C 0,1 C 22,7 km/h (4 Bft)
18.01.2019 02:29 15,4 C 2,9 C 2,4 C 54 % 75 % 1012,2 hPa 0,0 l/m 10,1 km/h (2 Bft) W 270 -1,1 C 0,1 C 22,7 km/h (4 Bft)
18.01.2019 02:28 15,6 C 2,9 C 2,5 C 54 % 75 % 1012,2 hPa 0,0 l/m 9,7 km/h (2 Bft) SW 225 -1,1 C 0,2 C 29,5 km/h (5 Bft)
18.01.2019 02:27 15,6 C 2,9 C 2,5 C 54 % 75 % 1012,2 hPa 0,0 l/m 9,7 km/h (2 Bft) SW 225 -1,1 C 0,2 C 29,5 km/h (5 Bft)
18.01.2019 02:26 15,4 C 2,9 C 2,5 C 54 % 75 % 1012,2 hPa 0,0 l/m 10,1 km/h (2 Bft) W-SW 247 -1,1 C 0,1 C 12,6 km/h (3 Bft)
18.01.2019 02:25 15,4 C 2,9 C 2,5 C 54 % 75 % 1012,2 hPa 0,0 l/m 10,1 km/h (2 Bft) W-SW 247 -1,1 C 0,1 C 12,6 km/h (3 Bft)
18.01.2019 02:24 15,6 C 2,9 C 2,5 C 54 % 75 % 1012,2 hPa 0,0 l/m 10,0 km/h (2 Bft) W 270 -1,1 C 0,1 C 19,3 km/h (3 Bft)
18.01.2019 02:23 15,6 C 2,9 C 2,5 C 54 % 75 % 1012,2 hPa 0,0 l/m 10,0 km/h (2 Bft) W 270 -1,1 C 0,1 C 19,3 km/h (3 Bft)
18.01.2019 02:22 15,6 C 2,9 C 2,4 C 54 % 75 % 1012,2 hPa 0,0 l/m 8,7 km/h (2 Bft) W-NW 292 -1,1 C 0,5 C 10,1 km/h (2 Bft)
18.01.2019 02:21 15,6 C 2,9 C 2,4 C 54 % 75 % 1012,2 hPa 0,0 l/m 8,7 km/h (2 Bft) W-NW 292 -1,1 C 0,5 C 10,1 km/h (2 Bft)
18.01.2019 02:20 15,6 C 2,9 C 2,5 C 54 % 75 % 1012,2 hPa 0,0 l/m 8,5 km/h (2 Bft) W-NW 292 -1,1 C 0,5 C 14,2 km/h (3 Bft)
18.01.2019 02:19 15,6 C 2,9 C 2,5 C 54 % 75 % 1012,2 hPa 0,0 l/m 8,5 km/h (2 Bft) W-NW 292 -1,1 C 0,5 C 14,2 km/h (3 Bft)
18.01.2019 02:18 15,6 C 3,0 C 2,6 C 54 % 74 % 1012,2 hPa 0,0 l/m 8,5 km/h (2 Bft) W 270 -1,2 C 0,6 C 22,0 km/h (4 Bft)
18.01.2019 02:17 15,6 C 3,0 C 2,6 C 54 % 74 % 1012,2 hPa 0,0 l/m 8,5 km/h (2 Bft) W 270 -1,2 C 0,6 C 22,0 km/h (4 Bft)
18.01.2019 02:16 15,6 C 3,0 C 2,6 C 54 % 74 % 1012,2 hPa 0,0 l/m 8,0 km/h (2 Bft) W-SW 247 -1,2 C 0,8 C 19,8 km/h (3 Bft)
18.01.2019 02:15 15,6 C 3,0 C 2,6 C 54 % 74 % 1012,2 hPa 0,0 l/m 8,0 km/h (2 Bft) W-SW 247 -1,2 C 0,8 C 19,8 km/h (3 Bft)
18.01.2019 02:14 15,6 C 3,0 C 2,5 C 54 % 74 % 1012,0 hPa 0,0 l/m 7,9 km/h (2 Bft) W 270 -1,2 C 0,8 C 15,2 km/h (3 Bft)
18.01.2019 02:13 15,6 C 3,0 C 2,5 C 54 % 74 % 1012,0 hPa 0,0 l/m 7,9 km/h (2 Bft) W 270 -1,2 C 0,8 C 15,2 km/h (3 Bft)
18.01.2019 02:12 15,6 C 3,0 C 2,8 C 54 % 74 % 1012,0 hPa 0,0 l/m 8,5 km/h (2 Bft) N-NW 337 -1,2 C 0,6 C 11,6 km/h (2 Bft)
18.01.2019 02:11 15,6 C 3,0 C 2,8 C 54 % 74 % 1012,0 hPa 0,0 l/m 8,5 km/h (2 Bft) N-NW 337 -1,2 C 0,6 C 11,6 km/h (2 Bft)
18.01.2019 02:10 15,6 C 3,2 C 2,8 C 54 % 74 % 1012,0 hPa 0,0 l/m 8,4 km/h (2 Bft) W-SW 247 -1,0 C 0,9 C 8,4 km/h (2 Bft)
18.01.2019 02:09 15,6 C 3,2 C 2,8 C 54 % 74 % 1012,0 hPa 0,0 l/m 8,4 km/h (2 Bft) W-SW 247 -1,0 C 0,9 C 8,4 km/h (2 Bft)
18.01.2019 02:08 15,6 C 3,2 C 2,8 C 54 % 74 % 1012,0 hPa 0,0 l/m 8,4 km/h (2 Bft) W-SW 247 -1,0 C 0,9 C 12,6 km/h (3 Bft)
18.01.2019 02:07 15,6 C 3,2 C 2,8 C 54 % 74 % 1012,0 hPa 0,0 l/m 8,4 km/h (2 Bft) W-SW 247 -1,0 C 0,9 C 12,6 km/h (3 Bft)
18.01.2019 02:06 15,6 C 3,2 C 2,9 C 54 % 74 % 1012,0 hPa 0,0 l/m 8,2 km/h (2 Bft) W 270 -1,0 C 1,0 C 16,9 km/h (3 Bft)
18.01.2019 02:05 15,6 C 3,2 C 2,9 C 54 % 74 % 1012,0 hPa 0,0 l/m 8,2 km/h (2 Bft) W 270 -1,0 C 1,0 C 16,9 km/h (3 Bft)
18.01.2019 02:04 15,6 C 3,2 C 3,0 C 54 % 74 % 1012,0 hPa 0,0 l/m 8,4 km/h (2 Bft) SW 225 -1,0 C 0,9 C 20,5 km/h (4 Bft)
18.01.2019 02:03 15,6 C 3,2 C 3,0 C 54 % 74 % 1012,0 hPa 0,0 l/m 8,4 km/h (2 Bft) SW 225 -1,0 C 0,9 C 20,5 km/h (4 Bft)
18.01.2019 02:02 15,6 C 3,2 C 3,0 C 54 % 74 % 1012,0 hPa 0,0 l/m 7,6 km/h (2 Bft) W 270 -1,0 C 1,1 C 17,6 km/h (3 Bft)
18.01.2019 02:01 15,6 C 3,2 C 3,0 C 54 % 74 % 1012,0 hPa 0,0 l/m 7,6 km/h (2 Bft) W 270 -1,0 C 1,1 C 17,6 km/h (3 Bft)
18.01.2019 02:00 15,6 C 3,2 C 2,9 C 54 % 74 % 1012,0 hPa 0,0 l/m 7,6 km/h (2 Bft) W 270 -1,0 C 1,1 C 12,1 km/h (2 Bft)
18.01.2019 01:59 15,6 C 3,2 C 2,9 C 54 % 74 % 1012,0 hPa 0,0 l/m 7,6 km/h (2 Bft) W 270 -1,0 C 1,1 C 12,1 km/h (2 Bft)
18.01.2019 01:58 15,6 C 3,2 C 3,0 C 54 % 74 % 1012,0 hPa 0,0 l/m 8,0 km/h (2 Bft) W 270 -1,0 C 1,0 C 13,3 km/h (3 Bft)
18.01.2019 01:57 15,6 C 3,2 C 3,0 C 54 % 74 % 1012,0 hPa 0,0 l/m 8,0 km/h (2 Bft) W 270 -1,0 C 1,0 C 13,3 km/h (3 Bft)
18.01.2019 01:56 15,6 C 3,2 C 3,0 C 54 % 74 % 1012,0 hPa 0,0 l/m 9,0 km/h (2 Bft) W-NW 292 -1,0 C 0,8 C 12,6 km/h (3 Bft)
18.01.2019 01:55 15,6 C 3,2 C 3,0 C 54 % 74 % 1012,0 hPa 0,0 l/m 9,0 km/h (2 Bft) W-NW 292 -1,0 C 0,8 C 12,6 km/h (3 Bft)
18.01.2019 01:54 15,6 C 3,2 C 2,9 C 54 % 74 % 1011,9 hPa 0,0 l/m 9,0 km/h (2 Bft) W 270 -1,0 C 0,8 C 16,4 km/h (3 Bft)
18.01.2019 01:53 15,6 C 3,2 C 2,9 C 54 % 74 % 1011,9 hPa 0,0 l/m 9,0 km/h (2 Bft) W 270 -1,0 C 0,8 C 16,4 km/h (3 Bft)
18.01.2019 01:52 15,6 C 3,2 C 2,9 C 54 % 74 % 1011,9 hPa 0,0 l/m 9,7 km/h (2 Bft) W-NW 292 -1,0 C 0,6 C 13,3 km/h (3 Bft)
18.01.2019 01:51 15,6 C 3,2 C 2,9 C 54 % 74 % 1011,9 hPa 0,0 l/m 9,7 km/h (2 Bft) W-NW 292 -1,0 C 0,6 C 13,3 km/h (3 Bft)
18.01.2019 01:50 15,6 C 3,3 C 2,9 C 53 % 74 % 1011,9 hPa 0,0 l/m 10,5 km/h (2 Bft) W 270 -0,9 C 0,5 C 14,7 km/h (3 Bft)
18.01.2019 01:49 15,6 C 3,3 C 2,9 C 53 % 74 % 1011,9 hPa 0,0 l/m 10,5 km/h (2 Bft) W 270 -0,9 C 0,5 C 14,7 km/h (3 Bft)
18.01.2019 01:48 15,7 C 3,3 C 2,9 C 53 % 74 % 1011,9 hPa 0,0 l/m 10,1 km/h (2 Bft) W-NW 292 -0,9 C 0,6 C 14,0 km/h (3 Bft)
18.01.2019 01:47 15,7 C 3,3 C 2,9 C 53 % 74 % 1011,9 hPa 0,0 l/m 10,1 km/h (2 Bft) W-NW 292 -0,9 C 0,6 C 14,0 km/h (3 Bft)
18.01.2019 01:46 15,7 C 3,3 C 3,0 C 53 % 74 % 1011,9 hPa 0,0 l/m 10,0 km/h (2 Bft) W 270 -0,9 C 0,6 C 23,7 km/h (4 Bft)
18.01.2019 01:45 15,7 C 3,3 C 3,0 C 53 % 74 % 1011,9 hPa 0,0 l/m 10,0 km/h (2 Bft) W 270 -0,9 C 0,6 C 23,7 km/h (4 Bft)
18.01.2019 01:44 15,6 C 3,2 C 2,9 C 53 % 74 % 1011,9 hPa 0,0 l/m 9,5 km/h (2 Bft) W 270 -1,0 C 0,6 C 15,7 km/h (3 Bft)
18.01.2019 01:43 15,6 C 3,2 C 2,9 C 53 % 74 % 1011,9 hPa 0,0 l/m 9,5 km/h (2 Bft) W 270 -1,0 C 0,6 C 15,7 km/h (3 Bft)
18.01.2019 01:42 15,6 C 3,2 C 2,9 C 53 % 74 % 1011,9 hPa 0,0 l/m 9,7 km/h (2 Bft) W 270 -1,0 C 0,6 C 14,0 km/h (3 Bft)
18.01.2019 01:41 15,6 C 3,2 C 2,9 C 53 % 74 % 1011,9 hPa 0,0 l/m 9,7 km/h (2 Bft) W 270 -1,0 C 0,6 C 14,0 km/h (3 Bft)
18.01.2019 01:40 15,6 C 3,2 C 2,9 C 53 % 74 % 1011,9 hPa 0,0 l/m 10,1 km/h (2 Bft) W 270 -1,0 C 0,5 C 16,7 km/h (3 Bft)
18.01.2019 01:39 15,6 C 3,2 C 2,9 C 53 % 74 % 1011,9 hPa 0,0 l/m 10,1 km/h (2 Bft) W 270 -1,0 C 0,5 C 16,7 km/h (3 Bft)
18.01.2019 01:38 15,6 C 3,3 C 3,1 C 53 % 74 % 1011,9 hPa 0,0 l/m 10,1 km/h (2 Bft) N-NW 337 -0,9 C 0,6 C 13,8 km/h (3 Bft)
18.01.2019 01:37 15,6 C 3,3 C 3,1 C 53 % 74 % 1011,9 hPa 0,0 l/m 10,1 km/h (2 Bft) N-NW 337 -0,9 C 0,6 C 13,8 km/h (3 Bft)
18.01.2019 01:36 15,6 C 3,3 C 3,1 C 53 % 74 % 1011,9 hPa 0,0 l/m 10,6 km/h (2 Bft) NW 315 -0,9 C 0,5 C 15,4 km/h (3 Bft)
18.01.2019 01:35 15,6 C 3,3 C 3,1 C 53 % 74 % 1011,9 hPa 0,0 l/m 10,6 km/h (2 Bft) NW 315 -0,9 C 0,5 C 15,4 km/h (3 Bft)
18.01.2019 01:34 15,8 C 3,3 C 3,0 C 53 % 74 % 1011,9 hPa 0,0 l/m 11,1 km/h (2 Bft) W 270 -0,9 C 0,4 C 17,6 km/h (3 Bft)
18.01.2019 01:33 15,8 C 3,3 C 3,0 C 53 % 74 % 1011,9 hPa 0,0 l/m 11,1 km/h (2 Bft) W 270 -0,9 C 0,4 C 17,6 km/h (3 Bft)
18.01.2019 01:32 15,8 C 3,2 C 3,0 C 53 % 74 % 1011,9 hPa 0,0 l/m 11,6 km/h (2 Bft) W-NW 292 -1,0 C 0,2 C 18,3 km/h (3 Bft)
18.01.2019 01:31 15,8 C 3,2 C 3,0 C 53 % 74 % 1011,9 hPa 0,0 l/m 11,6 km/h (2 Bft) W-NW 292 -1,0 C 0,2 C 18,3 km/h (3 Bft)
18.01.2019 01:30 15,8 C 3,2 C 3,0 C 53 % 74 % 1011,9 hPa 0,0 l/m 11,6 km/h (2 Bft) W 270 -1,0 C 0,2 C 22,0 km/h (4 Bft)
18.01.2019 01:29 15,8 C 3,2 C 3,0 C 53 % 74 % 1011,9 hPa 0,0 l/m 11,6 km/h (2 Bft) W 270 -1,0 C 0,2 C 22,0 km/h (4 Bft)
18.01.2019 01:28 15,8 C 3,2 C 2,9 C 53 % 74 % 1011,9 hPa 0,0 l/m 12,2 km/h (2 Bft) N-NW 337 -1,0 C 0,0 C 21,7 km/h (4 Bft)
18.01.2019 01:27 15,8 C 3,2 C 2,9 C 53 % 74 % 1011,9 hPa 0,0 l/m 12,2 km/h (2 Bft) N-NW 337 -1,0 C 0,0 C 21,7 km/h (4 Bft)
18.01.2019 01:26 15,8 C 3,2 C 3,0 C 53 % 74 % 1011,9 hPa 0,0 l/m 12,2 km/h (2 Bft) W 270 -1,0 C 0,0 C 19,1 km/h (3 Bft)
18.01.2019 01:25 15,8 C 3,2 C 3,0 C 53 % 74 % 1011,9 hPa 0,0 l/m 12,2 km/h (2 Bft) W 270 -1,0 C 0,0 C 19,1 km/h (3 Bft)
18.01.2019 01:24 15,8 C 3,2 C 3,0 C 53 % 74 % 1011,9 hPa 0,0 l/m 12,2 km/h (2 Bft) N-NW 337 -1,0 C 0,0 C 22,9 km/h (4 Bft)
18.01.2019 01:23 15,8 C 3,2 C 3,0 C 53 % 74 % 1011,9 hPa 0,0 l/m 12,2 km/h (2 Bft) N-NW 337 -1,0 C 0,0 C 22,9 km/h (4 Bft)
18.01.2019 01:22 15,8 C 3,2 C 2,9 C 53 % 74 % 1011,9 hPa 0,0 l/m 11,9 km/h (2 Bft) W 270 -1,0 C 0,1 C 19,6 km/h (3 Bft)
18.01.2019 01:21 15,8 C 3,2 C 2,9 C 53 % 74 % 1011,9 hPa 0,0 l/m 11,9 km/h (2 Bft) W 270 -1,0 C 0,1 C 19,6 km/h (3 Bft)
18.01.2019 01:20 15,8 C 3,2 C 2,9 C 53 % 74 % 1011,9 hPa 0,0 l/m 12,2 km/h (2 Bft) W-SW 247 -1,0 C 0,0 C 21,0 km/h (4 Bft)
18.01.2019 01:19 15,8 C 3,2 C 2,9 C 53 % 74 % 1011,9 hPa 0,0 l/m 12,2 km/h (2 Bft) W-SW 247 -1,0 C 0,0 C 21,0 km/h (4 Bft)
18.01.2019 01:18 15,9 C 3,2 C 2,9 C 53 % 74 % 1011,9 hPa 0,0 l/m 12,4 km/h (3 Bft) W 270 -1,0 C -0,0 C 31,1 km/h (5 Bft)
18.01.2019 01:17 15,9 C 3,2 C 2,9 C 53 % 74 % 1011,9 hPa 0,0 l/m 12,4 km/h (3 Bft) W 270 -1,0 C -0,0 C 31,1 km/h (5 Bft)
18.01.2019 01:16 15,9 C 3,2 C 2,9 C 53 % 74 % 1011,9 hPa 0,0 l/m 11,9 km/h (2 Bft) W 270 -1,0 C 0,1 C 20,0 km/h (4 Bft)
18.01.2019 01:15 15,9 C 3,2 C 2,9 C 53 % 74 % 1011,9 hPa 0,0 l/m 11,9 km/h (2 Bft) W 270 -1,0 C 0,1 C 20,0 km/h (4 Bft)
18.01.2019 01:14 15,9 C 3,2 C 2,9 C 53 % 73 % 1011,6 hPa 0,0 l/m 12,1 km/h (2 Bft) W-SW 247 -1,2 C 0,1 C 19,1 km/h (3 Bft)
18.01.2019 01:13 15,9 C 3,2 C 2,9 C 53 % 73 % 1011,6 hPa 0,0 l/m 12,1 km/h (2 Bft) W-SW 247 -1,2 C 0,1 C 19,1 km/h (3 Bft)
18.01.2019 01:12 15,9 C 3,2 C 2,9 C 53 % 73 % 1011,6 hPa 0,0 l/m 12,6 km/h (3 Bft) W 270 -1,2 C -0,0 C 23,7 km/h (4 Bft)
18.01.2019 01:11 15,9 C 3,2 C 2,9 C 53 % 73 % 1011,6 hPa 0,0 l/m 12,6 km/h (3 Bft) W 270 -1,2 C -0,0 C 23,7 km/h (4 Bft)
18.01.2019 01:10 15,8 C 3,3 C 2,9 C 53 % 73 % 1011,6 hPa 0,0 l/m 12,6 km/h (3 Bft) W-SW 247 -1,1 C 0,1 C 19,3 km/h (3 Bft)
18.01.2019 01:09 15,8 C 3,3 C 2,9 C 53 % 73 % 1011,6 hPa 0,0 l/m 12,6 km/h (3 Bft) W-SW 247 -1,1 C 0,1 C 19,3 km/h (3 Bft)
18.01.2019 01:08 16,0 C 3,3 C 2,9 C 53 % 73 % 1011,6 hPa 0,0 l/m 12,7 km/h (3 Bft) O 90 -1,1 C 0,1 C 27,8 km/h (4 Bft)
18.01.2019 01:07 16,0 C 3,3 C 2,9 C 53 % 73 % 1011,6 hPa 0,0 l/m 12,7 km/h (3 Bft) O 90 -1,1 C 0,1 C 27,8 km/h (4 Bft)
18.01.2019 01:06 16,0 C 3,4 C 3,0 C 53 % 73 % 1011,6 hPa 0,0 l/m 13,2 km/h (3 Bft) W 270 -1,0 C 0,1 C 19,3 km/h (3 Bft)
18.01.2019 01:05 16,0 C 3,4 C 3,0 C 53 % 73 % 1011,6 hPa 0,0 l/m 13,2 km/h (3 Bft) W 270 -1,0 C 0,1 C 19,3 km/h (3 Bft)
18.01.2019 01:04 16,0 C 3,5 C 3,0 C 53 % 73 % 1011,6 hPa 0,0 l/m 13,8 km/h (3 Bft) W-SW 247 -0,9 C 0,1 C 24,4 km/h (4 Bft)
18.01.2019 01:03 16,0 C 3,5 C 3,0 C 53 % 73 % 1011,6 hPa 0,0 l/m 13,8 km/h (3 Bft) W-SW 247 -0,9 C 0,1 C 24,4 km/h (4 Bft)
18.01.2019 01:02 16,0 C 3,5 C 3,1 C 53 % 72 % 1011,6 hPa 0,0 l/m 14,5 km/h (3 Bft) W 270 -1,1 C -0,0 C 28,2 km/h (4 Bft)
18.01.2019 01:01 16,0 C 3,5 C 3,1 C 53 % 72 % 1011,6 hPa 0,0 l/m 14,5 km/h (3 Bft) W 270 -1,1 C -0,0 C 28,2 km/h (4 Bft)
18.01.2019 01:00 16,0 C 3,7 C 3,1 C 53 % 72 % 1011,6 hPa 0,0 l/m 14,3 km/h (3 Bft) N-NW 337 -0,9 C 0,3 C 28,2 km/h (4 Bft)
18.01.2019 00:59 16,0 C 3,7 C 3,1 C 53 % 72 % 1011,6 hPa 0,0 l/m 14,3 km/h (3 Bft) N-NW 337 -0,9 C 0,3 C 28,2 km/h (4 Bft)
18.01.2019 00:58 16,0 C 3,7 C 3,1 C 53 % 72 % 1011,6 hPa 0,0 l/m 15,0 km/h (3 Bft) W 270 -0,9 C 0,1 C 26,6 km/h (4 Bft)
18.01.2019 00:57 16,0 C 3,7 C 3,1 C 53 % 72 % 1011,6 hPa 0,0 l/m 15,0 km/h (3 Bft) W 270 -0,9 C 0,1 C 26,6 km/h (4 Bft)
18.01.2019 00:56 15,9 C 3,7 C 3,1 C 53 % 72 % 1011,6 hPa 0,0 l/m 15,4 km/h (3 Bft) W 270 -0,9 C 0,1 C 25,8 km/h (4 Bft)
18.01.2019 00:55 15,9 C 3,7 C 3,1 C 53 % 72 % 1011,6 hPa 0,0 l/m 15,4 km/h (3 Bft) W 270 -0,9 C 0,1 C 25,8 km/h (4 Bft)
18.01.2019 00:54 15,9 C 3,8 C 3,1 C 53 % 72 % 1011,6 hPa 0,0 l/m 16,1 km/h (3 Bft) W 270 -0,8 C 0,1 C 34,8 km/h (5 Bft)
18.01.2019 00:53 15,9 C 3,8 C 3,1 C 53 % 72 % 1011,6 hPa 0,0 l/m 16,1 km/h (3 Bft) W 270 -0,8 C 0,1 C 34,8 km/h (5 Bft)
18.01.2019 00:52 16,1 C 3,8 C 3,3 C 53 % 72 % 1011,6 hPa 0,0 l/m 17,7 km/h (3 Bft) W-NW 292 -0,8 C -0,1 C 36,2 km/h (5 Bft)
18.01.2019 00:51 16,1 C 3,8 C 3,3 C 53 % 72 % 1011,6 hPa 0,0 l/m 17,7 km/h (3 Bft) W-NW 292 -0,8 C -0,1 C 36,2 km/h (5 Bft)
18.01.2019 00:50 16,1 C 4,1 C 3,2 C 53 % 71 % 1011,6 hPa 0,0 l/m 18,2 km/h (3 Bft) W-SW 247 -0,7 C 0,2 C 23,2 km/h (4 Bft)
18.01.2019 00:49 16,1 C 4,1 C 3,2 C 53 % 71 % 1011,6 hPa 0,0 l/m 18,2 km/h (3 Bft) W-SW 247 -0,7 C 0,2 C 23,2 km/h (4 Bft)
18.01.2019 00:48 16,1 C 4,1 C 3,3 C 53 % 70 % 1011,6 hPa 0,0 l/m 18,3 km/h (3 Bft) W 270 -0,9 C 0,2 C 21,0 km/h (4 Bft)
18.01.2019 00:47 16,1 C 4,1 C 3,3 C 53 % 70 % 1011,6 hPa 0,0 l/m 18,3 km/h (3 Bft) W 270 -0,9 C 0,2 C 21,0 km/h (4 Bft)
18.01.2019 00:46 16,1 C 4,3 C 3,6 C 53 % 70 % 1011,6 hPa 0,0 l/m 18,3 km/h (3 Bft) W 270 -0,7 C 0,4 C 34,3 km/h (5 Bft)
18.01.2019 00:45 16,1 C 4,3 C 3,6 C 53 % 70 % 1011,6 hPa 0,0 l/m 18,3 km/h (3 Bft) W 270 -0,7 C 0,4 C 34,3 km/h (5 Bft)
18.01.2019 00:44 16,1 C 4,4 C 3,7 C 53 % 70 % 1011,6 hPa 0,0 l/m 17,2 km/h (3 Bft) W 270 -0,6 C 0,7 C 41,3 km/h (6 Bft)
18.01.2019 00:43 16,1 C 4,4 C 3,7 C 53 % 70 % 1011,6 hPa 0,0 l/m 17,2 km/h (3 Bft) W 270 -0,6 C 0,7 C 41,3 km/h (6 Bft)
18.01.2019 00:42 16,1 C 4,7 C 4,3 C 53 % 69 % 1011,6 hPa 0,0 l/m 14,8 km/h (3 Bft) W 270 -0,5 C 1,4 C 48,3 km/h (6 Bft)
18.01.2019 00:41 16,1 C 4,7 C 4,3 C 53 % 69 % 1011,6 hPa 0,0 l/m 14,8 km/h (3 Bft) W 270 -0,5 C 1,4 C 48,3 km/h (6 Bft)
18.01.2019 00:40 16,2 C 4,9 C 4,5 C 53 % 69 % 1011,6 hPa 0,0 l/m 13,4 km/h (3 Bft) W 270 -0,3 C 1,9 C 28,2 km/h (4 Bft)
18.01.2019 00:39 16,2 C 4,9 C 4,5 C 53 % 69 % 1011,6 hPa 0,0 l/m 13,4 km/h (3 Bft) W 270 -0,3 C 1,9 C 28,2 km/h (4 Bft)
18.01.2019 00:38 16,2 C 4,9 C 4,8 C 53 % 69 % 1011,6 hPa 0,0 l/m 12,1 km/h (2 Bft) W 270 -0,3 C 2,1 C 24,6 km/h (4 Bft)
18.01.2019 00:37 16,2 C 4,9 C 4,8 C 53 % 69 % 1011,6 hPa 0,0 l/m 12,1 km/h (2 Bft) W 270 -0,3 C 2,1 C 24,6 km/h (4 Bft)
18.01.2019 00:36 16,2 C 4,9 C 4,8 C 53 % 68 % 1011,6 hPa 0,0 l/m 10,9 km/h (2 Bft) W-NW 292 -0,5 C 2,3 C 23,9 km/h (4 Bft)
18.01.2019 00:35 16,2 C 4,9 C 4,8 C 53 % 68 % 1011,6 hPa 0,0 l/m 10,9 km/h (2 Bft) W-NW 292 -0,5 C 2,3 C 23,9 km/h (4 Bft)
18.01.2019 00:34 16,2 C 4,9 C 4,7 C 53 % 68 % 1011,2 hPa 0,0 l/m 10,3 km/h (2 Bft) W-SW 247 -0,5 C 2,5 C 14,7 km/h (3 Bft)
18.01.2019 00:33 16,2 C 4,9 C 4,7 C 53 % 68 % 1011,2 hPa 0,0 l/m 10,3 km/h (2 Bft) W-SW 247 -0,5 C 2,5 C 14,7 km/h (3 Bft)
18.01.2019 00:32 16,2 C 4,9 C 4,7 C 53 % 68 % 1011,2 hPa 0,0 l/m 10,8 km/h (2 Bft) W 270 -0,5 C 2,4 C 10,6 km/h (2 Bft)
18.01.2019 00:31 16,2 C 4,9 C 4,7 C 53 % 68 % 1011,2 hPa 0,0 l/m 10,8 km/h (2 Bft) W 270 -0,5 C 2,4 C 10,6 km/h (2 Bft)
18.01.2019 00:30 16,2 C 5,0 C 4,7 C 53 % 68 % 1011,2 hPa 0,0 l/m 11,6 km/h (2 Bft) W-NW 292 -0,4 C 2,3 C 20,3 km/h (4 Bft)
18.01.2019 00:29 16,2 C 5,0 C 4,7 C 53 % 68 % 1011,2 hPa 0,0 l/m 11,6 km/h (2 Bft) W-NW 292 -0,4 C 2,3 C 20,3 km/h (4 Bft)
18.01.2019 00:28 16,3 C 5,0 C 4,8 C 53 % 68 % 1011,2 hPa 0,0 l/m 11,9 km/h (2 Bft) W 270 -0,4 C 2,3 C 18,1 km/h (3 Bft)
18.01.2019 00:27 16,3 C 5,0 C 4,8 C 53 % 68 % 1011,2 hPa 0,0 l/m 11,9 km/h (2 Bft) W 270 -0,4 C 2,3 C 18,1 km/h (3 Bft)
18.01.2019 00:26 16,3 C 5,0 C 4,7 C 53 % 68 % 1011,2 hPa 0,0 l/m 12,6 km/h (3 Bft) W-SW 247 -0,4 C 2,1 C 21,5 km/h (4 Bft)
18.01.2019 00:25 16,3 C 5,0 C 4,7 C 53 % 68 % 1011,2 hPa 0,0 l/m 12,6 km/h (3 Bft) W-SW 247 -0,4 C 2,1 C 21,5 km/h (4 Bft)
18.01.2019 00:24 16,2 C 5,0 C 4,7 C 53 % 68 % 1011,2 hPa 0,0 l/m 13,2 km/h (3 Bft) NW 315 -0,4 C 2,0 C 21,2 km/h (4 Bft)
18.01.2019 00:23 16,2 C 5,0 C 4,7 C 53 % 68 % 1011,2 hPa 0,0 l/m 13,2 km/h (3 Bft) NW 315 -0,4 C 2,0 C 21,2 km/h (4 Bft)
18.01.2019 00:22 16,2 C 5,0 C 4,7 C 53 % 67 % 1011,2 hPa 0,0 l/m 14,2 km/h (3 Bft) W 270 -0,6 C 1,9 C 20,0 km/h (4 Bft)
18.01.2019 00:21 16,2 C 5,0 C 4,7 C 53 % 67 % 1011,2 hPa 0,0 l/m 14,2 km/h (3 Bft) W 270 -0,6 C 1,9 C 20,0 km/h (4 Bft)
18.01.2019 00:20 16,2 C 5,2 C 4,7 C 53 % 68 % 1011,2 hPa 0,0 l/m 13,8 km/h (3 Bft) W 270 -0,2 C 2,2 C 19,3 km/h (3 Bft)
18.01.2019 00:19 16,2 C 5,2 C 4,7 C 53 % 68 % 1011,2 hPa 0,0 l/m 13,8 km/h (3 Bft) W 270 -0,2 C 2,2 C 19,3 km/h (3 Bft)
18.01.2019 00:18 16,4 C 5,2 C 4,7 C 53 % 68 % 1011,2 hPa 0,0 l/m 13,2 km/h (3 Bft) S-SW 202 -0,2 C 2,3 C 29,0 km/h (5 Bft)
18.01.2019 00:17 16,4 C 5,2 C 4,7 C 53 % 68 % 1011,2 hPa 0,0 l/m 13,2 km/h (3 Bft) S-SW 202 -0,2 C 2,3 C 29,0 km/h (5 Bft)
18.01.2019 00:16 16,4 C 5,2 C 4,7 C 53 % 68 % 1011,2 hPa 0,0 l/m 12,7 km/h (3 Bft) W 270 -0,2 C 2,4 C 23,9 km/h (4 Bft)
18.01.2019 00:15 16,4 C 5,2 C 4,7 C 53 % 68 % 1011,2 hPa 0,0 l/m 12,7 km/h (3 Bft) W 270 -0,2 C 2,4 C 23,9 km/h (4 Bft)
18.01.2019 00:14 16,4 C 5,0 C 4,5 C 53 % 68 % 1011,5 hPa 0,0 l/m 12,2 km/h (2 Bft) W 270 -0,4 C 2,2 C 35,0 km/h (5 Bft)
18.01.2019 00:13 16,4 C 5,0 C 4,5 C 53 % 68 % 1011,5 hPa 0,0 l/m 12,2 km/h (2 Bft) W 270 -0,4 C 2,2 C 35,0 km/h (5 Bft)
18.01.2019 00:12 16,4 C 5,0 C 4,7 C 53 % 68 % 1011,5 hPa 0,0 l/m 11,7 km/h (2 Bft) SW 225 -0,4 C 2,3 C 44,7 km/h (6 Bft)
18.01.2019 00:11 16,4 C 5,0 C 4,7 C 53 % 68 % 1011,5 hPa 0,0 l/m 11,7 km/h (2 Bft) SW 225 -0,4 C 2,3 C 23,9 km/h (4 Bft)
18.01.2019 00:10 16,4 C 5,0 C 4,5 C 53 % 68 % 1011,5 hPa 0,0 l/m 10,6 km/h (2 Bft) W 270 -0,4 C 2,5 C 20,0 km/h (4 Bft)
18.01.2019 00:09 16,4 C 5,0 C 4,5 C 53 % 68 % 1011,5 hPa 0,0 l/m 10,6 km/h (2 Bft) W 270 -0,4 C 2,5 C 20,0 km/h (4 Bft)
18.01.2019 00:08 16,4 C 5,0 C 4,8 C 53 % 68 % 1011,5 hPa 0,0 l/m 11,1 km/h (2 Bft) W 270 -0,4 C 2,4 C 18,6 km/h (3 Bft)
18.01.2019 00:07 16,4 C 5,0 C 4,8 C 53 % 68 % 1011,5 hPa 0,0 l/m 11,1 km/h (2 Bft) W 270 -0,4 C 2,4 C 18,6 km/h (3 Bft)
18.01.2019 00:06 16,4 C 5,0 C 4,7 C 53 % 68 % 1011,5 hPa 0,0 l/m 10,6 km/h (2 Bft) W 270 -0,4 C 2,5 C 21,7 km/h (4 Bft)
18.01.2019 00:05 16,4 C 5,0 C 4,7 C 53 % 68 % 1011,5 hPa 0,0 l/m 10,6 km/h (2 Bft) W 270 -0,4 C 2,5 C 21,7 km/h (4 Bft)
18.01.2019 00:04 16,5 C 5,0 C 4,7 C 53 % 68 % 1011,5 hPa 0,0 l/m 10,3 km/h (2 Bft) W 270 -0,4 C 2,6 C 20,0 km/h (4 Bft)
18.01.2019 00:03 16,5 C 5,0 C 4,7 C 53 % 68 % 1011,5 hPa 0,0 l/m 10,3 km/h (2 Bft) W 270 -0,4 C 2,6 C 20,0 km/h (4 Bft)
18.01.2019 00:02 16,5 C 5,0 C 4,7 C 53 % 68 % 1011,5 hPa 0,0 l/m 10,3 km/h (2 Bft) W 270 -0,4 C 2,6 C 20,0 km/h (4 Bft)
18.01.2019 00:01 16,5 C 5,0 C 4,7 C 53 % 68 % 1011,5 hPa 0,0 l/m 10,3 km/h (2 Bft) W 270 -0,4 C 2,6 C 20,0 km/h (4 Bft)
18.01.2019 00:00 16,5 C 5,0 C 4,4 C 53 % 68 % 1011,5 hPa 0,0 l/m 10,3 km/h (2 Bft) W 270 -0,4 C 2,6 C 9,9 km/h (2 Bft)
_ Min-Zeit 05:29 08:35 08:35 00:00 00:21 00:15 - 03:33 - - 08:35 08:35 07:11
Minimum _ 14,9 C 1,1 C 1,2 C 53 % 67 % 1011,2 hPa - 5,1 km/h (1 Bft) - - -2,8 C -2,8 C 5,3 km/h (1 Bft)
_ Max-Zeit 08:47 00:15 00:07 04:09 05:17 08:35 00:00 00:45 - - 00:15 00:00 00:41
Maximum _ 17,0 C 5,2 C 4,8 C 57 % 78 % 1017,9 hPa 0,0 l/m 18,3 km/h
W (3 Bft)
- - -0,2 C 2,6 C 48,3 km/h
W (6 Bft)
Durchschnitt _ 15,7 C 2,5 C 2,4 C 55 % 75 % 1013,2 hPa #0,0 l/m 10,4 km/h (2 Bft) W - -1,6 C -0,4 C 18,8 km/h (3 Bft)